Time,TemperatureF,DewpointF,PressureIn,WindDirection,WindDirectionDegrees,WindSpeedMPH,WindSpeedGustMPH,Humidity,HourlyPrecipIn,Conditions,Clouds,dailyrainin,SoftwareType,DateUTC
2013-10-13 00:00:00,72.5,69.1,30.00,NNE,18,0.0,0.0,89,0.00,,,0.00,Wunderground v.1.15,2013-10-13 04:00:00,
2013-10-13 00:01:00,72.5,69.1,30.00,NNE,17,0.0,0.0,89,0.00,,,0.00,Wunderground v.1.15,2013-10-13 04:01:00,
2013-10-13 00:02:00,72.4,69.0,30.00,NNE,18,0.0,0.0,89,0.00,,,0.00,Wunderground v.1.15,2013-10-13 04:02:00,
2013-10-13 00:06:00,72.3,69.2,30.00,NNE,17,0.0,0.0,90,0.00,,,0.00,Wunderground v.1.15,2013-10-13 04:06:00,
2013-10-13 00:07:00,72.4,69.3,30.00,NNE,17,0.0,0.0,90,0.00,,,0.00,Wunderground v.1.15,2013-10-13 04:07:00,
2013-10-13 00:08:00,72.3,69.2,30.00,NNE,17,0.0,0.0,90,0.00,,,0.00,Wunderground v.1.15,2013-10-13 04:08:00,
2013-10-13 00:10:00,72.2,69.1,30.00,NNE,17,0.0,0.0,90,0.00,,,0.00,Wunderground v.1.15,2013-10-13 04:10:00,
2013-10-13 00:14:00,72.1,68.7,30.00,NNE,18,0.0,0.0,89,0.00,,,0.00,Wunderground v.1.15,2013-10-13 04:14:00,
2013-10-13 00:15:00,72.0,68.6,30.00,NNE,18,0.0,0.0,89,0.00,,,0.00,Wunderground v.1.15,2013-10-13 04:15:00,
2013-10-13 00:17:00,72.0,68.9,30.00,NNE,18,0.0,0.0,90,0.00,,,0.00,Wunderground v.1.15,2013-10-13 04:17:00,
2013-10-13 00:18:00,71.9,68.8,30.00,NNE,17,0.0,0.0,90,0.00,,,0.00,Wunderground v.1.15,2013-10-13 04:18:00,
2013-10-13 00:19:00,72.0,68.9,30.00,NNE,18,0.0,0.0,90,0.00,,,0.00,Wunderground v.1.15,2013-10-13 04:19:00,
2013-10-13 00:21:00,72.0,68.9,30.00,NNE,18,0.0,0.0,90,0.00,,,0.00,Wunderground v.1.15,2013-10-13 04:21:00,
2013-10-13 00:22:00,72.0,69.2,29.99,NNE,18,0.0,0.0,91,0.00,,,0.00,Wunderground v.1.15,2013-10-13 04:22:00,
2013-10-13 00:23:00,72.0,69.2,29.99,NNE,18,0.0,0.0,91,0.00,,,0.00,Wunderground v.1.15,2013-10-13 04:23:00,
2013-10-13 00:24:00,72.0,69.2,29.99,NNE,18,0.0,0.0,91,0.00,,,0.00,Wunderground v.1.15,2013-10-13 04:24:00,
2013-10-13 00:28:00,72.2,69.4,29.99,NNE,18,0.0,0.0,91,0.00,,,0.00,Wunderground v.1.15,2013-10-13 04:28:00,
2013-10-13 00:30:00,72.2,69.4,29.99,NNE,17,0.0,0.0,91,0.00,,,0.00,Wunderground v.1.15,2013-10-13 04:30:00,
2013-10-13 00:31:00,72.2,69.4,29.99,NNE,18,0.0,0.0,91,0.00,,,0.00,Wunderground v.1.15,2013-10-13 04:31:00,
2013-10-13 00:34:00,72.1,69.3,29.99,NNE,17,0.0,0.0,91,0.00,,,0.00,Wunderground v.1.15,2013-10-13 04:34:00,
2013-10-13 00:36:00,72.0,69.2,29.99,NNE,18,0.0,0.0,91,0.00,,,0.00,Wunderground v.1.15,2013-10-13 04:36:00,
2013-10-13 00:37:00,72.0,69.2,29.99,NNE,17,0.0,0.0,91,0.00,,,0.00,Wunderground v.1.15,2013-10-13 04:37:00,
2013-10-13 00:38:00,72.0,69.2,29.99,NNE,17,0.0,0.0,91,0.00,,,0.00,Wunderground v.1.15,2013-10-13 04:38:00,
2013-10-13 00:39:00,71.9,69.1,29.99,NNE,17,0.0,0.0,91,0.00,,,0.00,Wunderground v.1.15,2013-10-13 04:39:00,
2013-10-13 00:44:00,71.9,69.4,29.99,NNE,17,0.0,0.0,92,0.00,,,0.00,Wunderground v.1.15,2013-10-13 04:44:00,
2013-10-13 00:45:00,71.9,69.4,29.99,NNE,18,0.0,0.0,92,0.00,,,0.00,Wunderground v.1.15,2013-10-13 04:45:00,
2013-10-13 00:46:00,71.9,69.4,29.99,NNE,17,0.0,0.0,92,0.00,,,0.00,Wunderground v.1.15,2013-10-13 04:46:00,
2013-10-13 00:50:00,71.9,69.4,29.99,NNE,17,0.0,0.0,92,0.00,,,0.00,Wunderground v.1.15,2013-10-13 04:50:00,
2013-10-13 00:52:00,71.9,69.4,29.98,NNE,17,0.0,0.0,92,0.00,,,0.00,Wunderground v.1.15,2013-10-13 04:52:00,
2013-10-13 00:54:00,71.9,69.4,29.98,NNE,17,0.0,0.0,92,0.00,,,0.00,Wunderground v.1.15,2013-10-13 04:54:00,
2013-10-13 00:56:00,71.8,69.3,29.99,NNE,18,0.0,0.0,92,0.00,,,0.00,Wunderground v.1.15,2013-10-13 04:56:00,
2013-10-13 00:57:00,71.8,69.3,29.99,NNE,18,0.0,0.0,92,0.00,,,0.00,Wunderground v.1.15,2013-10-13 04:57:00,
2013-10-13 00:58:00,71.8,69.3,29.98,NNE,18,0.0,0.0,92,0.00,,,0.00,Wunderground v.1.15,2013-10-13 04:58:00,
2013-10-13 00:59:00,71.8,69.3,29.98,NNE,17,0.0,0.0,92,0.00,,,0.00,Wunderground v.1.15,2013-10-13 04:59:00,
2013-10-13 01:00:00,71.7,69.3,29.98,NNE,17,0.0,0.0,92,0.00,,,0.00,Wunderground v.1.15,2013-10-13 05:00:00,
2013-10-13 01:05:00,71.6,69.2,29.98,NNE,17,0.0,0.0,92,0.00,,,0.00,Wunderground v.1.15,2013-10-13 05:05:00,
2013-10-13 01:06:00,71.5,69.1,29.98,NNE,17,0.0,0.0,92,0.00,,,0.00,Wunderground v.1.15,2013-10-13 05:06:00,
2013-10-13 01:08:00,71.5,69.1,29.98,NNE,18,0.0,0.0,92,0.00,,,0.00,Wunderground v.1.15,2013-10-13 05:08:00,
2013-10-13 01:09:00,71.6,69.2,29.98,NNE,17,0.0,0.0,92,0.00,,,0.00,Wunderground v.1.15,2013-10-13 05:09:00,
2013-10-13 01:10:00,71.6,69.2,29.98,NNE,18,0.0,0.0,92,0.00,,,0.00,Wunderground v.1.15,2013-10-13 05:10:00,
2013-10-13 01:11:00,71.5,69.1,29.98,NNE,17,0.0,0.0,92,0.00,,,0.00,Wunderground v.1.15,2013-10-13 05:11:00,
2013-10-13 01:13:00,71.6,69.5,29.98,NNE,18,0.0,0.0,93,0.00,,,0.00,Wunderground v.1.15,2013-10-13 05:13:00,
2013-10-13 01:14:00,71.7,69.6,29.98,NNE,18,0.0,0.0,93,0.00,,,0.00,Wunderground v.1.15,2013-10-13 05:14:00,
2013-10-13 01:16:00,71.8,69.7,29.98,NNE,17,0.0,0.0,93,0.00,,,0.00,Wunderground v.1.15,2013-10-13 05:16:00,
2013-10-13 01:18:00,71.8,69.7,29.98,NNE,17,0.0,0.0,93,0.00,,,0.00,Wunderground v.1.15,2013-10-13 05:18:00,
2013-10-13 01:21:00,71.7,69.6,29.98,NNE,18,0.0,0.0,93,0.00,,,0.00,Wunderground v.1.15,2013-10-13 05:21:00,
2013-10-13 01:22:00,71.6,69.5,29.98,NNE,18,0.0,0.0,93,0.00,,,0.00,Wunderground v.1.15,2013-10-13 05:22:00,
2013-10-13 01:23:00,71.6,69.5,29.98,NNE,18,0.0,0.0,93,0.00,,,0.00,Wunderground v.1.15,2013-10-13 05:23:00,
2013-10-13 01:24:00,71.6,69.5,29.98,NNE,17,0.0,0.0,93,0.00,,,0.00,Wunderground v.1.15,2013-10-13 05:24:00,
2013-10-13 01:25:00,71.6,69.5,29.98,NNE,18,0.0,0.0,93,0.00,,,0.00,Wunderground v.1.15,2013-10-13 05:25:00,
2013-10-13 01:26:00,71.6,69.5,29.98,NNE,18,0.0,0.0,93,0.00,,,0.00,Wunderground v.1.15,2013-10-13 05:26:00,
2013-10-13 01:29:00,71.6,69.5,29.98,NNE,18,0.0,0.0,93,0.00,,,0.00,Wunderground v.1.15,2013-10-13 05:29:00,
2013-10-13 01:30:00,71.5,69.4,29.98,NNE,17,0.0,0.0,93,0.00,,,0.00,Wunderground v.1.15,2013-10-13 05:30:00,
2013-10-13 01:31:00,71.5,69.4,29.98,NNE,17,0.0,0.0,93,0.00,,,0.00,Wunderground v.1.15,2013-10-13 05:31:00,
2013-10-13 01:35:00,71.5,69.7,29.98,NNE,17,0.0,0.0,94,0.00,,,0.00,Wunderground v.1.15,2013-10-13 05:35:00,
2013-10-13 01:37:00,71.5,69.4,29.98,NNE,17,0.0,0.0,93,0.00,,,0.00,Wunderground v.1.15,2013-10-13 05:37:00,
2013-10-13 01:38:00,71.5,69.4,29.98,NNE,18,0.0,0.0,93,0.00,,,0.00,Wunderground v.1.15,2013-10-13 05:38:00,
2013-10-13 01:39:00,71.5,69.4,29.98,NNE,17,0.0,0.0,93,0.00,,,0.00,Wunderground v.1.15,2013-10-13 05:39:00,
2013-10-13 01:40:00,71.5,69.4,29.98,NNE,17,0.0,0.0,93,0.00,,,0.00,Wunderground v.1.15,2013-10-13 05:40:00,
2013-10-13 01:42:00,71.5,69.4,29.98,NNE,17,0.0,0.0,93,0.00,,,0.00,Wunderground v.1.15,2013-10-13 05:42:00,
2013-10-13 01:45:00,71.5,69.4,29.98,NNE,17,0.0,0.0,93,0.00,,,0.00,Wunderground v.1.15,2013-10-13 05:45:00,
2013-10-13 01:48:00,71.4,69.3,29.98,NNE,17,0.0,0.0,93,0.00,,,0.00,Wunderground v.1.15,2013-10-13 05:48:00,
2013-10-13 01:49:00,71.4,69.3,29.98,NNE,17,0.0,0.0,93,0.00,,,0.00,Wunderground v.1.15,2013-10-13 05:49:00,
2013-10-13 01:50:00,71.4,69.6,29.98,NNE,18,0.0,0.0,94,0.00,,,0.00,Wunderground v.1.15,2013-10-13 05:50:00,
2013-10-13 01:51:00,71.4,69.6,29.98,NNE,18,0.0,0.0,94,0.00,,,0.00,Wunderground v.1.15,2013-10-13 05:51:00,
2013-10-13 01:55:00,71.4,69.3,29.98,NNE,18,0.0,0.0,93,0.00,,,0.00,Wunderground v.1.15,2013-10-13 05:55:00,
2013-10-13 01:56:00,71.4,69.3,29.98,NNE,18,0.0,0.0,93,0.00,,,0.00,Wunderground v.1.15,2013-10-13 05:56:00,
2013-10-13 01:59:00,71.4,69.3,29.98,NNE,17,0.0,0.0,93,0.00,,,0.00,Wunderground v.1.15,2013-10-13 05:59:00,
2013-10-13 02:00:00,71.4,69.6,29.98,NNE,18,0.0,0.0,94,0.00,,,0.00,Wunderground v.1.15,2013-10-13 06:00:00,
2013-10-13 02:01:00,71.4,69.6,29.98,NNE,18,0.0,0.0,94,0.00,,,0.00,Wunderground v.1.15,2013-10-13 06:01:00,
2013-10-13 02:03:00,71.6,69.8,29.97,NNE,18,0.0,0.0,94,0.00,,,0.00,Wunderground v.1.15,2013-10-13 06:03:00,
2013-10-13 02:04:00,71.6,69.8,29.97,NNE,17,0.0,0.0,94,0.00,,,0.00,Wunderground v.1.15,2013-10-13 06:04:00,
2013-10-13 02:06:00,71.8,70.0,29.98,NNE,18,0.0,0.0,94,0.00,,,0.00,Wunderground v.1.15,2013-10-13 06:06:00,
2013-10-13 02:07:00,71.8,69.7,29.98,NNE,17,0.0,0.0,93,0.00,,,0.00,Wunderground v.1.15,2013-10-13 06:07:00,
2013-10-13 02:08:00,71.9,69.8,29.98,NNE,17,0.0,0.0,93,0.00,,,0.00,Wunderground v.1.15,2013-10-13 06:08:00,
2013-10-13 02:10:00,72.0,69.9,29.97,NNE,18,0.0,0.0,93,0.00,,,0.00,Wunderground v.1.15,2013-10-13 06:10:00,
2013-10-13 02:12:00,72.1,70.0,29.97,NNE,17,0.0,0.0,93,0.00,,,0.00,Wunderground v.1.15,2013-10-13 06:12:00,
2013-10-13 02:13:00,72.2,69.7,29.97,NNE,18,0.0,0.0,92,0.00,,,0.00,Wunderground v.1.15,2013-10-13 06:13:00,
2013-10-13 02:15:00,72.2,69.7,29.97,NNE,17,0.0,0.0,92,0.00,,,0.00,Wunderground v.1.15,2013-10-13 06:15:00,
2013-10-13 02:16:00,72.2,69.7,29.97,NNE,18,0.0,0.0,92,0.00,,,0.00,Wunderground v.1.15,2013-10-13 06:16:00,
2013-10-13 02:19:00,72.4,69.9,29.97,NNE,17,0.0,0.0,92,0.00,,,0.00,Wunderground v.1.15,2013-10-13 06:19:00,
2013-10-13 02:20:00,72.5,70.0,29.97,NNE,18,0.0,0.0,92,0.00,,,0.00,Wunderground v.1.15,2013-10-13 06:20:00,
2013-10-13 02:21:00,72.5,70.0,29.97,NNE,18,0.0,0.0,92,0.00,,,0.00,Wunderground v.1.15,2013-10-13 06:21:00,
2013-10-13 02:22:00,72.6,69.8,29.97,NNE,17,0.0,0.0,91,0.00,,,0.00,Wunderground v.1.15,2013-10-13 06:22:00,
2013-10-13 02:24:00,72.7,69.9,29.97,NNE,17,0.0,0.0,91,0.00,,,0.00,Wunderground v.1.15,2013-10-13 06:24:00,
2013-10-13 02:26:00,72.7,69.6,29.96,NNE,18,0.0,0.0,90,0.00,,,0.00,Wunderground v.1.15,2013-10-13 06:26:00,
2013-10-13 02:28:00,72.7,69.6,29.96,NNE,18,0.0,0.0,90,0.00,,,0.00,Wunderground v.1.15,2013-10-13 06:28:00,
2013-10-13 02:30:00,72.7,69.6,29.96,NNE,18,0.0,0.0,90,0.00,,,0.00,Wunderground v.1.15,2013-10-13 06:30:00,
2013-10-13 02:34:00,72.7,69.6,29.96,NNE,17,0.0,0.0,90,0.00,,,0.00,Wunderground v.1.15,2013-10-13 06:34:00,
2013-10-13 02:35:00,72.7,69.6,29.96,NNE,18,0.0,0.0,90,0.00,,,0.00,Wunderground v.1.15,2013-10-13 06:35:00,
2013-10-13 02:37:00,72.7,69.6,29.96,NNE,18,0.0,0.0,90,0.00,,,0.00,Wunderground v.1.15,2013-10-13 06:37:00,
2013-10-13 02:40:00,72.7,69.6,29.96,NNE,17,0.0,0.0,90,0.00,,,0.00,Wunderground v.1.15,2013-10-13 06:40:00,
2013-10-13 02:41:00,72.6,69.8,29.96,NNE,18,0.0,0.0,91,0.00,,,0.00,Wunderground v.1.15,2013-10-13 06:41:00,
2013-10-13 02:44:00,72.5,69.4,29.96,NNE,18,0.0,0.0,90,0.00,,,0.00,Wunderground v.1.15,2013-10-13 06:44:00,
2013-10-13 02:45:00,72.4,69.3,29.96,NNE,18,0.0,0.0,90,0.00,,,0.00,Wunderground v.1.15,2013-10-13 06:45:00,
2013-10-13 02:46:00,72.4,69.3,29.96,NNE,18,0.0,0.0,90,0.00,,,0.00,Wunderground v.1.15,2013-10-13 06:46:00,
2013-10-13 02:50:00,72.2,69.4,29.95,NNE,18,0.0,0.0,91,0.00,,,0.00,Wunderground v.1.15,2013-10-13 06:50:00,
2013-10-13 02:51:00,72.1,69.3,29.95,NNE,18,0.0,0.0,91,0.00,,,0.00,Wunderground v.1.15,2013-10-13 06:51:00,
2013-10-13 02:52:00,72.0,69.2,29.95,NNE,17,0.0,0.0,91,0.00,,,0.00,Wunderground v.1.15,2013-10-13 06:52:00,
2013-10-13 02:54:00,72.0,69.2,29.95,NNE,17,0.0,0.0,91,0.00,,,0.00,Wunderground v.1.15,2013-10-13 06:54:00,
2013-10-13 02:55:00,72.0,69.2,29.95,NNE,18,0.0,0.0,91,0.00,,,0.00,Wunderground v.1.15,2013-10-13 06:55:00,
2013-10-13 02:57:00,71.9,69.4,29.95,NNE,18,0.0,0.0,92,0.00,,,0.00,Wunderground v.1.15,2013-10-13 06:57:00,
2013-10-13 02:58:00,71.9,69.4,29.95,NNE,17,0.0,0.0,92,0.00,,,0.00,Wunderground v.1.15,2013-10-13 06:58:00,
2013-10-13 03:00:00,71.8,69.3,29.95,NNE,17,0.0,0.0,92,0.00,,,0.00,Wunderground v.1.15,2013-10-13 07:00:00,
2013-10-13 03:02:00,71.8,69.3,29.95,NNE,17,0.0,0.0,92,0.00,,,0.00,Wunderground v.1.15,2013-10-13 07:02:00,
2013-10-13 03:04:00,71.8,69.3,29.95,NNE,18,0.0,0.0,92,0.00,,,0.00,Wunderground v.1.15,2013-10-13 07:04:00,
2013-10-13 03:06:00,71.6,69.2,29.95,NNE,17,0.0,0.0,92,0.00,,,0.00,Wunderground v.1.15,2013-10-13 07:06:00,
2013-10-13 03:08:00,71.6,69.2,29.95,NNE,17,0.0,0.0,92,0.00,,,0.00,Wunderground v.1.15,2013-10-13 07:08:00,
2013-10-13 03:09:00,71.6,69.2,29.95,NNE,17,0.0,0.0,92,0.00,,,0.00,Wunderground v.1.15,2013-10-13 07:09:00,
2013-10-13 03:10:00,71.6,69.2,29.95,NNE,18,0.0,0.0,92,0.00,,,0.00,Wunderground v.1.15,2013-10-13 07:10:00,
2013-10-13 03:11:00,71.6,69.5,29.95,NNE,17,0.0,0.0,93,0.00,,,0.00,Wunderground v.1.15,2013-10-13 07:11:00,
2013-10-13 03:13:00,71.6,69.5,29.95,NNE,18,0.0,0.0,93,0.00,,,0.00,Wunderground v.1.15,2013-10-13 07:13:00,
2013-10-13 03:14:00,71.6,69.5,29.95,NNE,18,0.0,0.0,93,0.00,,,0.00,Wunderground v.1.15,2013-10-13 07:14:00,
2013-10-13 03:16:00,71.6,69.5,29.95,NNE,18,0.0,0.0,93,0.00,,,0.00,Wunderground v.1.15,2013-10-13 07:16:00,
2013-10-13 03:17:00,71.6,69.5,29.95,NNE,17,0.0,0.0,93,0.00,,,0.00,Wunderground v.1.15,2013-10-13 07:17:00,
2013-10-13 03:18:00,71.6,69.5,29.95,NNE,18,0.0,0.0,93,0.00,,,0.00,Wunderground v.1.15,2013-10-13 07:18:00,
2013-10-13 03:19:00,71.5,69.4,29.95,NNE,18,0.0,0.0,93,0.00,,,0.00,Wunderground v.1.15,2013-10-13 07:19:00,
2013-10-13 03:23:00,71.6,69.5,29.95,NNE,18,0.0,0.0,93,0.00,,,0.00,Wunderground v.1.15,2013-10-13 07:23:00,
2013-10-13 03:24:00,71.6,69.5,29.95,NNE,17,0.0,0.0,93,0.00,,,0.00,Wunderground v.1.15,2013-10-13 07:24:00,
2013-10-13 03:25:00,71.6,69.5,29.95,NNE,17,0.0,0.0,93,0.00,,,0.00,Wunderground v.1.15,2013-10-13 07:25:00,
2013-10-13 03:26:00,71.7,69.6,29.95,NNE,18,0.0,0.0,93,0.00,,,0.00,Wunderground v.1.15,2013-10-13 07:26:00,
2013-10-13 03:30:00,71.7,69.6,29.95,NNE,18,0.0,0.0,93,0.00,,,0.00,Wunderground v.1.15,2013-10-13 07:30:00,
2013-10-13 03:32:00,71.8,69.7,29.95,NNE,18,0.0,1.0,93,0.00,,,0.00,Wunderground v.1.15,2013-10-13 07:32:00,
2013-10-13 03:33:00,71.8,69.7,29.95,NNE,18,0.0,1.0,93,0.00,,,0.00,Wunderground v.1.15,2013-10-13 07:33:00,
2013-10-13 03:34:00,71.8,69.7,29.95,NNE,17,0.0,1.0,93,0.00,,,0.00,Wunderground v.1.15,2013-10-13 07:34:00,
2013-10-13 03:36:00,71.7,69.6,29.95,NNE,17,0.0,1.0,93,0.00,,,0.00,Wunderground v.1.15,2013-10-13 07:36:00,
2013-10-13 03:40:00,71.6,69.5,29.95,NNE,18,0.0,1.0,93,0.00,,,0.00,Wunderground v.1.15,2013-10-13 07:40:00,
2013-10-13 03:41:00,71.6,69.5,29.95,NNE,18,0.0,1.0,93,0.00,,,0.00,Wunderground v.1.15,2013-10-13 07:41:00,
2013-10-13 03:42:00,71.6,69.8,29.95,NNE,18,0.0,1.0,94,0.00,,,0.00,Wunderground v.1.15,2013-10-13 07:42:00,
2013-10-13 03:45:00,71.6,69.8,29.95,NNE,17,0.0,1.0,94,0.00,,,0.00,Wunderground v.1.15,2013-10-13 07:45:00,
2013-10-13 03:47:00,71.6,69.8,29.95,NNE,17,0.0,1.0,94,0.00,,,0.00,Wunderground v.1.15,2013-10-13 07:47:00,
2013-10-13 03:49:00,71.5,69.7,29.95,NNE,18,0.0,1.0,94,0.00,,,0.00,Wunderground v.1.15,2013-10-13 07:49:00,
2013-10-13 03:50:00,71.5,69.4,29.95,NNE,17,0.0,1.0,93,0.00,,,0.00,Wunderground v.1.15,2013-10-13 07:50:00,
2013-10-13 03:53:00,71.4,69.6,29.95,NNE,17,0.0,1.0,94,0.00,,,0.00,Wunderground v.1.15,2013-10-13 07:53:00,
2013-10-13 03:54:00,71.3,69.5,29.95,NNE,18,0.0,1.0,94,0.00,,,0.00,Wunderground v.1.15,2013-10-13 07:54:00,
2013-10-13 03:56:00,71.3,69.5,29.95,NNE,17,0.0,1.0,94,0.00,,,0.00,Wunderground v.1.15,2013-10-13 07:56:00,
2013-10-13 03:58:00,71.3,69.5,29.95,NNE,17,0.0,1.0,94,0.00,,,0.00,Wunderground v.1.15,2013-10-13 07:58:00,
2013-10-13 04:00:00,71.3,69.5,29.95,NNE,17,0.0,0.0,94,0.00,,,0.00,Wunderground v.1.15,2013-10-13 08:00:00,
2013-10-13 04:02:00,71.3,69.5,29.95,NNE,17,0.0,1.0,94,0.00,,,0.00,Wunderground v.1.15,2013-10-13 08:02:00,
2013-10-13 04:03:00,71.4,69.9,29.95,NW,326,0.0,1.0,95,0.00,,,0.00,Wunderground v.1.15,2013-10-13 08:03:00,
2013-10-13 04:04:00,71.4,69.9,29.95,NW,320,0.0,1.0,95,0.00,,,0.00,Wunderground v.1.15,2013-10-13 08:04:00,
2013-10-13 04:06:00,71.5,70.0,29.95,WNW,288,0.0,1.0,95,0.00,,,0.00,Wunderground v.1.15,2013-10-13 08:06:00,
2013-10-13 04:07:00,71.6,70.1,29.95,WNW,288,0.0,1.0,95,0.00,,,0.00,Wunderground v.1.15,2013-10-13 08:07:00,
2013-10-13 04:11:00,71.8,70.0,29.95,West,281,1.0,1.0,94,0.00,,,0.00,Wunderground v.1.15,2013-10-13 08:11:00,
2013-10-13 04:12:00,71.8,70.0,29.95,West,279,1.0,1.0,94,0.00,,,0.00,Wunderground v.1.15,2013-10-13 08:12:00,
2013-10-13 04:13:00,71.8,70.0,29.95,West,279,1.0,1.0,94,0.00,,,0.00,Wunderground v.1.15,2013-10-13 08:13:00,
2013-10-13 04:14:00,71.9,70.1,29.95,West,279,1.0,1.0,94,0.00,,,0.00,Wunderground v.1.15,2013-10-13 08:14:00,
2013-10-13 04:17:00,72.1,70.0,29.95,WNW,289,1.0,2.0,93,0.00,,,0.00,Wunderground v.1.15,2013-10-13 08:17:00,
2013-10-13 04:19:00,72.2,70.1,29.95,WNW,289,1.0,2.0,93,0.00,,,0.00,Wunderground v.1.15,2013-10-13 08:19:00,
2013-10-13 04:22:00,72.3,70.2,29.95,WNW,289,1.0,1.0,93,0.00,,,0.00,Wunderground v.1.15,2013-10-13 08:22:00,
2013-10-13 04:23:00,72.3,70.2,29.95,WNW,289,1.0,1.0,93,0.00,,,0.00,Wunderground v.1.15,2013-10-13 08:23:00,
2013-10-13 04:25:00,72.3,70.2,29.95,WNW,289,1.0,1.0,93,0.00,,,0.00,Wunderground v.1.15,2013-10-13 08:25:00,
2013-10-13 04:26:00,72.3,70.2,29.95,WNW,289,1.0,1.0,93,0.00,,,0.00,Wunderground v.1.15,2013-10-13 08:26:00,
2013-10-13 04:28:00,72.3,70.2,29.95,WNW,289,1.0,1.0,93,0.00,,,0.00,Wunderground v.1.15,2013-10-13 08:28:00,
2013-10-13 04:29:00,72.4,70.3,29.95,WNW,289,1.0,1.0,93,0.00,,,0.00,Wunderground v.1.15,2013-10-13 08:29:00,
2013-10-13 04:30:00,72.4,70.3,29.95,WNW,289,1.0,1.0,93,0.00,,,0.00,Wunderground v.1.15,2013-10-13 08:30:00,
2013-10-13 04:34:00,72.4,70.3,29.95,WNW,292,1.0,1.0,93,0.00,,,0.00,Wunderground v.1.15,2013-10-13 08:34:00,
2013-10-13 04:36:00,72.4,70.3,29.95,WNW,292,1.0,1.0,93,0.00,,,0.00,Wunderground v.1.15,2013-10-13 08:36:00,
2013-10-13 04:38:00,72.4,70.3,29.95,WNW,292,1.0,1.0,93,0.00,,,0.00,Wunderground v.1.15,2013-10-13 08:38:00,
2013-10-13 04:39:00,72.4,70.3,29.95,NW,305,1.0,1.0,93,0.00,,,0.00,Wunderground v.1.15,2013-10-13 08:39:00,
2013-10-13 04:40:00,72.4,70.6,29.96,WNW,292,1.0,1.0,94,0.00,,,0.00,Wunderground v.1.15,2013-10-13 08:40:00,
2013-10-13 04:42:00,72.5,70.4,29.96,WNW,283,1.0,1.0,93,0.00,,,0.00,Wunderground v.1.15,2013-10-13 08:42:00,
2013-10-13 04:43:00,72.5,70.4,29.96,WNW,283,1.0,1.0,93,0.00,,,0.00,Wunderground v.1.15,2013-10-13 08:43:00,
2013-10-13 04:44:00,72.5,70.4,29.95,WNW,285,1.0,1.0,93,0.00,,,0.00,Wunderground v.1.15,2013-10-13 08:44:00,
2013-10-13 04:46:00,72.5,70.4,29.95,WNW,284,1.0,1.0,93,0.00,,,0.00,Wunderground v.1.15,2013-10-13 08:46:00,
2013-10-13 04:47:00,72.6,70.8,29.95,WNW,284,1.0,1.0,94,0.00,,,0.00,Wunderground v.1.15,2013-10-13 08:47:00,
2013-10-13 04:50:00,72.6,70.5,29.95,WNW,293,1.0,1.0,93,0.00,,,0.00,Wunderground v.1.15,2013-10-13 08:50:00,
2013-10-13 04:52:00,72.7,70.6,29.96,WNW,285,1.0,1.0,93,0.00,,,0.00,Wunderground v.1.15,2013-10-13 08:52:00,
2013-10-13 04:53:00,72.7,70.6,29.96,WNW,285,1.0,1.0,93,0.00,,,0.00,Wunderground v.1.15,2013-10-13 08:53:00,
2013-10-13 04:55:00,72.7,70.6,29.96,WNW,290,1.0,2.0,93,0.00,,,0.00,Wunderground v.1.15,2013-10-13 08:55:00,
2013-10-13 04:57:00,72.8,71.0,29.95,WNW,289,1.0,2.0,94,0.00,,,0.00,Wunderground v.1.15,2013-10-13 08:57:00,
2013-10-13 05:00:00,72.8,71.0,29.96,WNW,284,1.0,2.0,94,0.00,,,0.00,Wunderground v.1.15,2013-10-13 09:00:00,
2013-10-13 05:02:00,72.9,70.8,29.96,WNW,301,2.0,2.0,93,0.00,,,0.00,Wunderground v.1.15,2013-10-13 09:02:00,
2013-10-13 05:03:00,72.9,71.1,29.96,West,281,2.0,2.0,94,0.00,,,0.00,Wunderground v.1.15,2013-10-13 09:03:00,
2013-10-13 05:04:00,73.0,70.9,29.96,WNW,296,1.0,2.0,93,0.00,,,0.00,Wunderground v.1.15,2013-10-13 09:04:00,
2013-10-13 05:06:00,73.0,71.2,29.96,WNW,291,1.0,2.0,94,0.00,,,0.00,Wunderground v.1.15,2013-10-13 09:06:00,
2013-10-13 05:07:00,73.1,71.3,29.96,WNW,290,1.0,2.0,94,0.00,,,0.00,Wunderground v.1.15,2013-10-13 09:07:00,
2013-10-13 05:12:00,73.3,71.5,29.96,WNW,297,1.0,1.0,94,0.00,,,0.00,Wunderground v.1.15,2013-10-13 09:12:00,
2013-10-13 05:13:00,73.3,71.5,29.96,WNW,297,1.0,1.0,94,0.00,,,0.00,Wunderground v.1.15,2013-10-13 09:13:00,
2013-10-13 05:15:00,73.4,71.6,29.96,WNW,300,1.0,1.0,94,0.00,,,0.00,Wunderground v.1.15,2013-10-13 09:15:00,
2013-10-13 05:16:00,73.4,71.6,29.96,WNW,300,1.0,1.0,94,0.00,,,0.00,Wunderground v.1.15,2013-10-13 09:16:00,
2013-10-13 05:17:00,73.5,71.7,29.96,NW,318,1.0,1.0,94,0.00,,,0.00,Wunderground v.1.15,2013-10-13 09:17:00,
2013-10-13 05:19:00,73.5,71.7,29.96,WNW,295,1.0,1.0,94,0.00,,,0.00,Wunderground v.1.15,2013-10-13 09:19:00,
2013-10-13 05:20:00,73.5,71.7,29.96,WNW,295,1.0,1.0,94,0.00,,,0.00,Wunderground v.1.15,2013-10-13 09:20:00,
2013-10-13 05:21:00,73.5,71.7,29.96,WNW,295,0.0,1.0,94,0.00,,,0.00,Wunderground v.1.15,2013-10-13 09:21:00,
2013-10-13 05:22:00,73.5,71.4,29.96,NW,311,0.0,1.0,93,0.00,,,0.00,Wunderground v.1.15,2013-10-13 09:22:00,
2013-10-13 05:23:00,73.5,71.4,29.96,NW,311,0.0,1.0,93,0.00,,,0.00,Wunderground v.1.15,2013-10-13 09:23:00,
2013-10-13 05:28:00,73.4,71.3,29.96,NNE,14,0.0,1.0,93,0.00,,,0.00,Wunderground v.1.15,2013-10-13 09:28:00,
2013-10-13 05:31:00,73.3,71.2,29.96,NNE,14,0.0,2.0,93,0.00,,,0.00,Wunderground v.1.15,2013-10-13 09:31:00,
2013-10-13 05:32:00,73.3,71.2,29.96,NNE,14,0.0,2.0,93,0.00,,,0.00,Wunderground v.1.15,2013-10-13 09:32:00,
2013-10-13 05:33:00,73.3,71.2,29.96,NNE,14,0.0,2.0,93,0.00,,,0.00,Wunderground v.1.15,2013-10-13 09:33:00,
2013-10-13 05:34:00,73.3,71.2,29.96,NNE,14,0.0,2.0,93,0.00,,,0.00,Wunderground v.1.15,2013-10-13 09:34:00,
2013-10-13 05:35:00,73.3,71.2,29.96,NNE,14,0.0,2.0,93,0.00,,,0.00,Wunderground v.1.15,2013-10-13 09:35:00,
2013-10-13 05:37:00,73.3,71.2,29.96,NNE,14,0.0,2.0,93,0.00,,,0.00,Wunderground v.1.15,2013-10-13 09:37:00,
2013-10-13 05:38:00,73.3,71.2,29.96,NNE,14,0.0,2.0,93,0.00,,,0.00,Wunderground v.1.15,2013-10-13 09:38:00,
2013-10-13 05:39:00,73.3,71.2,29.96,NNE,14,0.0,2.0,93,0.00,,,0.00,Wunderground v.1.15,2013-10-13 09:39:00,
2013-10-13 05:43:00,73.4,71.3,29.96,NNW,342,0.0,2.0,93,0.00,,,0.00,Wunderground v.1.15,2013-10-13 09:43:00,
2013-10-13 05:44:00,73.4,71.3,29.96,NNW,342,0.0,2.0,93,0.00,,,0.00,Wunderground v.1.15,2013-10-13 09:44:00,
2013-10-13 05:45:00,73.4,71.3,29.96,NNW,334,0.0,2.0,93,0.00,,,0.00,Wunderground v.1.15,2013-10-13 09:45:00,
2013-10-13 05:49:00,73.4,71.3,29.96,WNW,300,1.0,2.0,93,0.00,,,0.00,Wunderground v.1.15,2013-10-13 09:49:00,
2013-10-13 05:51:00,73.5,71.0,29.96,WNW,300,1.0,2.0,92,0.00,,,0.00,Wunderground v.1.15,2013-10-13 09:51:00,
2013-10-13 05:52:00,73.4,70.9,29.96,WNW,300,1.0,2.0,92,0.00,,,0.00,Wunderground v.1.15,2013-10-13 09:52:00,
2013-10-13 05:54:00,73.4,70.9,29.96,WNW,300,1.0,2.0,92,0.00,,,0.00,Wunderground v.1.15,2013-10-13 09:54:00,
2013-10-13 05:56:00,73.3,70.8,29.96,WNW,300,0.0,2.0,92,0.00,,,0.00,Wunderground v.1.15,2013-10-13 09:56:00,
2013-10-13 05:58:00,73.3,70.8,29.96,WNW,300,0.0,2.0,92,0.00,,,0.00,Wunderground v.1.15,2013-10-13 09:58:00,
2013-10-13 06:00:00,73.2,70.7,29.96,WNW,300,0.0,0.0,92,0.00,,,0.00,Wunderground v.1.15,2013-10-13 10:00:00,
2013-10-13 06:01:00,73.2,70.7,29.96,WNW,300,0.0,0.0,92,0.00,,,0.00,Wunderground v.1.15,2013-10-13 10:01:00,
2013-10-13 06:04:00,73.2,71.1,29.96,WNW,298,0.0,1.0,93,0.00,,,0.00,Wunderground v.1.15,2013-10-13 10:04:00,
2013-10-13 06:08:00,73.3,71.2,29.96,WNW,297,1.0,2.0,93,0.00,,,0.00,Wunderground v.1.15,2013-10-13 10:08:00,
2013-10-13 06:10:00,73.4,71.3,29.97,WNW,297,1.0,1.0,93,0.00,,,0.00,Wunderground v.1.15,2013-10-13 10:10:00,
2013-10-13 06:11:00,73.4,71.3,29.96,WNW,297,1.0,1.0,93,0.00,,,0.00,Wunderground v.1.15,2013-10-13 10:11:00,
2013-10-13 06:14:00,73.4,70.9,29.97,NW,319,1.0,1.0,92,0.00,,,0.00,Wunderground v.1.15,2013-10-13 10:14:00,
2013-10-13 06:18:00,73.4,70.9,29.97,NW,320,0.0,1.0,92,0.00,,,0.00,Wunderground v.1.15,2013-10-13 10:18:00,
2013-10-13 06:19:00,73.4,70.9,29.97,NW,320,0.0,1.0,92,0.00,,,0.00,Wunderground v.1.15,2013-10-13 10:19:00,
2013-10-13 06:23:00,73.4,70.9,29.97,NW,320,0.0,0.0,92,0.00,,,0.00,Wunderground v.1.15,2013-10-13 10:23:00,
2013-10-13 06:26:00,73.5,71.0,29.97,NW,320,0.0,0.0,92,0.00,,,0.00,Wunderground v.1.15,2013-10-13 10:26:00,
2013-10-13 06:27:00,73.4,70.9,29.97,NW,320,0.0,0.0,92,0.00,,,0.00,Wunderground v.1.15,2013-10-13 10:27:00,
2013-10-13 06:30:00,73.4,70.9,29.97,NW,320,0.0,0.0,92,0.00,,,0.00,Wunderground v.1.15,2013-10-13 10:30:00,
2013-10-13 06:31:00,73.4,70.9,29.97,NW,320,0.0,2.0,92,0.00,,,0.00,Wunderground v.1.15,2013-10-13 10:31:00,
2013-10-13 06:37:00,73.0,70.5,29.97,NW,320,0.0,2.0,92,0.00,,,0.00,Wunderground v.1.15,2013-10-13 10:37:00,
2013-10-13 06:38:00,73.0,70.5,29.97,NW,320,0.0,2.0,92,0.00,,,0.00,Wunderground v.1.15,2013-10-13 10:38:00,
2013-10-13 06:39:00,72.9,70.4,29.98,NW,320,0.0,2.0,92,0.00,,,0.00,Wunderground v.1.15,2013-10-13 10:39:00,
2013-10-13 06:40:00,72.9,70.4,29.98,NW,320,0.0,2.0,92,0.00,,,0.00,Wunderground v.1.15,2013-10-13 10:40:00,
2013-10-13 06:41:00,72.9,70.4,29.97,NW,320,0.0,2.0,92,0.00,,,0.00,Wunderground v.1.15,2013-10-13 10:41:00,
2013-10-13 06:42:00,72.8,70.3,29.98,NW,320,0.0,2.0,92,0.00,,,0.00,Wunderground v.1.15,2013-10-13 10:42:00,
2013-10-13 06:44:00,72.8,70.7,29.98,NW,320,0.0,2.0,93,0.00,,,0.00,Wunderground v.1.15,2013-10-13 10:44:00,
2013-10-13 06:45:00,72.8,70.7,29.98,NW,307,0.0,2.0,93,0.00,,,0.00,Wunderground v.1.15,2013-10-13 10:45:00,
2013-10-13 06:46:00,72.8,70.7,29.98,NW,304,0.0,2.0,93,0.00,,,0.00,Wunderground v.1.15,2013-10-13 10:46:00,
2013-10-13 06:49:00,72.8,70.7,29.98,NW,304,0.0,2.0,93,0.00,,,0.00,Wunderground v.1.15,2013-10-13 10:49:00,
2013-10-13 06:50:00,72.8,70.7,29.98,WNW,301,0.0,2.0,93,0.00,,,0.00,Wunderground v.1.15,2013-10-13 10:50:00,
2013-10-13 06:51:00,72.8,70.7,29.98,NW,304,1.0,2.0,93,0.00,,,0.00,Wunderground v.1.15,2013-10-13 10:51:00,
2013-10-13 06:54:00,72.8,70.7,29.98,North,355,1.0,2.0,93,0.00,,,0.00,Wunderground v.1.15,2013-10-13 10:54:00,
2013-10-13 06:56:00,72.9,71.1,29.98,North,354,1.0,2.0,94,0.00,,,0.00,Wunderground v.1.15,2013-10-13 10:56:00,
2013-10-13 06:57:00,72.9,71.1,29.98,North,354,1.0,2.0,94,0.00,,,0.00,Wunderground v.1.15,2013-10-13 10:57:00,
2013-10-13 06:58:00,72.9,71.1,29.98,North,355,1.0,2.0,94,0.00,,,0.00,Wunderground v.1.15,2013-10-13 10:58:00,
2013-10-13 07:01:00,72.9,71.1,29.98,North,353,1.0,1.0,94,0.00,,,0.00,Wunderground v.1.15,2013-10-13 11:01:00,
2013-10-13 07:03:00,72.9,71.1,29.98,North,353,1.0,1.0,94,0.00,,,0.00,Wunderground v.1.15,2013-10-13 11:03:00,
2013-10-13 07:05:00,72.9,71.1,29.98,North,354,1.0,1.0,94,0.00,,,0.00,Wunderground v.1.15,2013-10-13 11:05:00,
2013-10-13 07:06:00,72.9,71.1,29.98,North,355,1.0,1.0,94,0.00,,,0.00,Wunderground v.1.15,2013-10-13 11:06:00,
2013-10-13 07:08:00,72.8,71.0,29.98,North,354,1.0,2.0,94,0.00,,,0.00,Wunderground v.1.15,2013-10-13 11:08:00,
2013-10-13 07:09:00,72.9,71.1,29.98,North,354,1.0,2.0,94,0.00,,,0.00,Wunderground v.1.15,2013-10-13 11:09:00,
2013-10-13 07:11:00,72.9,71.1,29.98,North,355,1.0,1.0,94,0.00,,,0.00,Wunderground v.1.15,2013-10-13 11:11:00,
2013-10-13 07:13:00,72.9,71.1,29.98,North,355,1.0,1.0,94,0.00,,,0.00,Wunderground v.1.15,2013-10-13 11:13:00,
2013-10-13 07:15:00,72.9,71.1,29.98,North,355,1.0,1.0,94,0.00,,,0.00,Wunderground v.1.15,2013-10-13 11:15:00,
2013-10-13 07:16:00,72.9,71.1,29.98,North,356,1.0,1.0,94,0.00,,,0.00,Wunderground v.1.15,2013-10-13 11:16:00,
2013-10-13 07:18:00,72.9,71.1,29.98,North,356,1.0,1.0,94,0.00,,,0.00,Wunderground v.1.15,2013-10-13 11:18:00,
2013-10-13 07:19:00,72.9,71.1,29.98,North,355,1.0,1.0,94,0.00,,,0.00,Wunderground v.1.15,2013-10-13 11:19:00,
2013-10-13 07:22:00,72.9,71.1,29.98,North,353,1.0,2.0,94,0.00,,,0.00,Wunderground v.1.15,2013-10-13 11:22:00,
2013-10-13 07:23:00,72.8,71.0,29.98,North,353,1.0,2.0,94,0.00,,,0.00,Wunderground v.1.15,2013-10-13 11:23:00,
2013-10-13 07:24:00,72.8,71.0,29.98,North,353,1.0,2.0,94,0.00,,,0.00,Wunderground v.1.15,2013-10-13 11:24:00,
2013-10-13 07:26:00,72.8,71.0,29.98,North,353,1.0,2.0,94,0.00,,,0.00,Wunderground v.1.15,2013-10-13 11:26:00,
2013-10-13 07:27:00,72.8,71.0,29.98,North,354,1.0,2.0,94,0.00,,,0.00,Wunderground v.1.15,2013-10-13 11:27:00,
2013-10-13 07:30:00,72.8,71.0,29.98,North,353,1.0,1.0,94,0.00,,,0.00,Wunderground v.1.15,2013-10-13 11:30:00,
2013-10-13 07:31:00,72.8,71.0,29.98,North,354,1.0,2.0,94,0.00,,,0.00,Wunderground v.1.15,2013-10-13 11:31:00,
2013-10-13 07:33:00,72.8,71.0,29.98,North,354,1.0,2.0,94,0.00,,,0.00,Wunderground v.1.15,2013-10-13 11:33:00,
2013-10-13 07:35:00,72.7,70.9,29.98,North,354,1.0,2.0,94,0.00,,,0.00,Wunderground v.1.15,2013-10-13 11:35:00,
2013-10-13 07:38:00,72.7,70.9,29.98,North,354,0.0,2.0,94,0.00,,,0.00,Wunderground v.1.15,2013-10-13 11:38:00,
2013-10-13 07:39:00,72.6,70.8,29.98,North,354,0.0,2.0,94,0.00,,,0.00,Wunderground v.1.15,2013-10-13 11:39:00,
2013-10-13 07:40:00,72.6,70.8,29.98,North,354,0.0,2.0,94,0.00,,,0.00,Wunderground v.1.15,2013-10-13 11:40:00,
2013-10-13 07:41:00,72.6,70.8,29.98,North,354,0.0,2.0,94,0.00,,,0.00,Wunderground v.1.15,2013-10-13 11:41:00,
2013-10-13 07:45:00,72.6,71.1,29.98,North,354,0.0,2.0,95,0.00,,,0.00,Wunderground v.1.15,2013-10-13 11:45:00,
2013-10-13 07:46:00,72.6,71.1,29.98,North,354,0.0,2.0,95,0.00,,,0.00,Wunderground v.1.15,2013-10-13 11:46:00,
2013-10-13 07:47:00,72.6,71.1,29.98,North,354,0.0,2.0,95,0.00,,,0.00,Wunderground v.1.15,2013-10-13 11:47:00,
2013-10-13 07:49:00,72.6,71.1,29.98,North,354,0.0,2.0,95,0.00,,,0.00,Wunderground v.1.15,2013-10-13 11:49:00,
2013-10-13 07:51:00,72.6,71.1,29.98,North,354,0.0,2.0,95,0.00,,,0.00,Wunderground v.1.15,2013-10-13 11:51:00,
2013-10-13 07:52:00,72.6,71.1,29.98,North,354,0.0,2.0,95,0.00,,,0.00,Wunderground v.1.15,2013-10-13 11:52:00,
2013-10-13 07:55:00,72.7,71.2,29.98,North,356,0.0,2.0,95,0.00,,,0.00,Wunderground v.1.15,2013-10-13 11:55:00,
2013-10-13 07:57:00,72.7,71.2,29.98,North,356,0.0,2.0,95,0.00,,,0.00,Wunderground v.1.15,2013-10-13 11:57:00,
2013-10-13 07:58:00,72.7,70.9,29.99,North,356,0.0,2.0,94,0.00,,,0.00,Wunderground v.1.15,2013-10-13 11:58:00,
2013-10-13 07:59:00,72.8,71.0,29.99,North,356,1.0,2.0,94,0.00,,,0.00,Wunderground v.1.15,2013-10-13 11:59:00,
2013-10-13 08:01:00,72.9,71.1,29.99,North,356,1.0,1.0,94,0.00,,,0.00,Wunderground v.1.15,2013-10-13 12:01:00,
2013-10-13 08:04:00,73.1,71.3,29.99,North,356,1.0,1.0,94,0.00,,,0.00,Wunderground v.1.15,2013-10-13 12:04:00,
2013-10-13 08:08:00,73.3,71.2,29.99,North,356,1.0,1.0,93,0.00,,,0.00,Wunderground v.1.15,2013-10-13 12:08:00,
2013-10-13 08:09:00,73.3,71.2,29.99,North,356,1.0,2.0,93,0.00,,,0.00,Wunderground v.1.15,2013-10-13 12:09:00,
2013-10-13 08:10:00,73.4,70.9,29.99,North,356,1.0,1.0,92,0.00,,,0.00,Wunderground v.1.15,2013-10-13 12:10:00,
2013-10-13 08:11:00,73.5,71.0,29.99,North,356,1.0,1.0,92,0.00,,,0.00,Wunderground v.1.15,2013-10-13 12:11:00,
2013-10-13 08:12:00,73.6,71.1,29.99,North,355,1.0,2.0,92,0.00,,,0.00,Wunderground v.1.15,2013-10-13 12:12:00,
2013-10-13 08:13:00,73.6,71.1,29.99,North,356,1.0,2.0,92,0.00,,,0.00,Wunderground v.1.15,2013-10-13 12:13:00,
2013-10-13 08:16:00,73.9,71.1,29.99,North,355,1.0,2.0,91,0.00,,,0.00,Wunderground v.1.15,2013-10-13 12:16:00,
2013-10-13 08:18:00,74.1,71.3,29.99,North,355,1.0,2.0,91,0.00,,,0.00,Wunderground v.1.15,2013-10-13 12:18:00,
2013-10-13 08:19:00,74.1,71.3,29.99,North,355,1.0,2.0,91,0.00,,,0.00,Wunderground v.1.15,2013-10-13 12:19:00,
2013-10-13 08:21:00,74.3,71.2,29.99,North,355,1.0,2.0,90,0.00,,,0.00,Wunderground v.1.15,2013-10-13 12:21:00,
2013-10-13 08:23:00,74.5,71.0,29.99,North,356,1.0,3.0,89,0.00,,,0.00,Wunderground v.1.15,2013-10-13 12:23:00,
2013-10-13 08:28:00,74.9,71.1,30.00,North,356,2.0,3.0,88,0.00,,,0.00,Wunderground v.1.15,2013-10-13 12:28:00,
2013-10-13 08:29:00,75.1,71.0,30.00,North,356,2.0,3.0,87,0.00,,,0.00,Wunderground v.1.15,2013-10-13 12:29:00,
2013-10-13 08:31:00,75.3,71.5,30.00,North,356,1.0,2.0,88,0.00,,,0.00,Wunderground v.1.15,2013-10-13 12:31:00,
2013-10-13 08:32:00,75.3,71.2,30.00,North,356,1.0,2.0,87,0.00,,,0.00,Wunderground v.1.15,2013-10-13 12:32:00,
2013-10-13 08:33:00,75.5,71.4,30.00,North,356,1.0,2.0,87,0.00,,,0.00,Wunderground v.1.15,2013-10-13 12:33:00,
2013-10-13 08:37:00,75.9,71.1,30.00,North,356,1.0,2.0,85,0.00,,,0.00,Wunderground v.1.15,2013-10-13 12:37:00,
2013-10-13 08:38:00,76.0,71.5,30.00,North,356,1.0,2.0,86,0.00,,,0.00,Wunderground v.1.15,2013-10-13 12:38:00,
2013-10-13 08:39:00,76.1,71.3,30.00,North,356,1.0,2.0,85,0.00,,,0.00,Wunderground v.1.15,2013-10-13 12:39:00,
2013-10-13 08:43:00,76.4,71.2,30.00,North,356,1.0,2.0,84,0.00,,,0.00,Wunderground v.1.15,2013-10-13 12:43:00,
2013-10-13 08:45:00,76.6,71.0,30.00,North,354,1.0,3.0,83,0.00,,,0.00,Wunderground v.1.15,2013-10-13 12:45:00,
2013-10-13 08:47:00,76.7,71.1,30.00,North,353,2.0,3.0,83,0.00,,,0.00,Wunderground v.1.15,2013-10-13 12:47:00,
2013-10-13 08:48:00,76.8,70.9,30.00,North,352,2.0,3.0,82,0.00,,,0.00,Wunderground v.1.15,2013-10-13 12:48:00,
2013-10-13 08:52:00,77.1,71.2,30.00,North,353,2.0,3.0,82,0.00,,,0.00,Wunderground v.1.15,2013-10-13 12:52:00,
2013-10-13 08:54:00,77.2,71.3,30.00,North,352,2.0,3.0,82,0.00,,,0.00,Wunderground v.1.15,2013-10-13 12:54:00,
2013-10-13 08:55:00,77.4,71.5,30.00,North,352,2.0,3.0,82,0.00,,,0.00,Wunderground v.1.15,2013-10-13 12:55:00,
2013-10-13 08:57:00,77.6,72.0,30.00,North,354,1.0,3.0,83,0.00,,,0.00,Wunderground v.1.15,2013-10-13 12:57:00,
2013-10-13 08:58:00,77.7,71.4,30.00,North,352,1.0,3.0,81,0.00,,,0.00,Wunderground v.1.15,2013-10-13 12:58:00,
2013-10-13 08:59:00,77.8,71.5,30.00,North,353,1.0,3.0,81,0.00,,,0.00,Wunderground v.1.15,2013-10-13 12:59:00,
2013-10-13 09:01:00,78.0,71.7,30.00,North,352,1.0,2.0,81,0.00,,,0.00,Wunderground v.1.15,2013-10-13 13:01:00,
2013-10-13 09:03:00,78.1,71.1,30.01,North,354,1.0,2.0,79,0.00,,,0.00,Wunderground v.1.15,2013-10-13 13:03:00,
2013-10-13 09:06:00,78.3,71.2,30.01,North,353,1.0,2.0,79,0.00,,,0.00,Wunderground v.1.15,2013-10-13 13:06:00,
2013-10-13 09:08:00,78.5,71.8,30.01,North,353,1.0,2.0,80,0.00,,,0.00,Wunderground v.1.15,2013-10-13 13:08:00,
2013-10-13 09:09:00,78.7,71.6,30.01,North,352,1.0,2.0,79,0.00,,,0.00,Wunderground v.1.15,2013-10-13 13:09:00,
2013-10-13 09:10:00,78.8,71.7,30.01,North,354,1.0,2.0,79,0.00,,,0.00,Wunderground v.1.15,2013-10-13 13:10:00,
2013-10-13 09:11:00,78.9,71.8,30.01,North,354,1.0,3.0,79,0.00,,,0.00,Wunderground v.1.15,2013-10-13 13:11:00,
2013-10-13 09:15:00,79.1,70.5,30.01,North,354,1.0,3.0,75,0.00,,,0.00,Wunderground v.1.15,2013-10-13 13:15:00,
2013-10-13 09:17:00,79.3,71.5,30.01,North,354,2.0,3.0,77,0.00,,,0.00,Wunderground v.1.15,2013-10-13 13:17:00,
2013-10-13 09:18:00,79.4,70.8,30.01,North,355,2.0,3.0,75,0.00,,,0.00,Wunderground v.1.15,2013-10-13 13:18:00,
2013-10-13 09:19:00,79.4,70.8,30.01,North,352,2.0,4.0,75,0.00,,,0.00,Wunderground v.1.15,2013-10-13 13:19:00,
2013-10-13 09:23:00,79.7,70.7,30.01,North,354,2.0,2.0,74,0.00,,,0.00,Wunderground v.1.15,2013-10-13 13:23:00,
2013-10-13 09:24:00,79.8,71.2,30.01,North,353,2.0,2.0,75,0.00,,,0.00,Wunderground v.1.15,2013-10-13 13:24:00,
2013-10-13 09:25:00,79.8,70.8,30.02,North,352,2.0,2.0,74,0.00,,,0.00,Wunderground v.1.15,2013-10-13 13:25:00,
2013-10-13 09:30:00,80.3,71.3,30.02,North,355,1.0,1.0,74,0.00,,,0.00,Wunderground v.1.15,2013-10-13 13:30:00,
2013-10-13 09:31:00,80.3,71.3,30.02,North,355,1.0,4.0,74,0.00,,,0.00,Wunderground v.1.15,2013-10-13 13:31:00,
2013-10-13 09:33:00,80.5,71.4,30.02,North,354,1.0,4.0,74,0.00,,,0.00,Wunderground v.1.15,2013-10-13 13:33:00,
2013-10-13 09:34:00,80.6,71.5,30.01,North,356,1.0,4.0,74,0.00,,,0.00,Wunderground v.1.15,2013-10-13 13:34:00,
2013-10-13 09:37:00,80.9,71.0,30.01,North,353,1.0,4.0,72,0.00,,,0.00,Wunderground v.1.15,2013-10-13 13:37:00,
2013-10-13 09:38:00,80.9,71.0,30.02,North,352,1.0,4.0,72,0.00,,,0.00,Wunderground v.1.15,2013-10-13 13:38:00,
2013-10-13 09:41:00,80.8,70.5,30.01,North,354,2.0,4.0,71,0.00,,,0.00,Wunderground v.1.15,2013-10-13 13:41:00,
2013-10-13 09:44:00,80.7,70.8,30.02,North,352,3.0,4.0,72,0.00,,,0.00,Wunderground v.1.15,2013-10-13 13:44:00,
2013-10-13 09:45:00,80.8,70.9,30.02,North,353,3.0,4.0,72,0.00,,,0.00,Wunderground v.1.15,2013-10-13 13:45:00,
2013-10-13 09:46:00,80.7,70.4,30.02,North,354,3.0,4.0,71,0.00,,,0.00,Wunderground v.1.15,2013-10-13 13:46:00,
2013-10-13 09:47:00,80.7,71.2,30.02,North,353,3.0,4.0,73,0.00,,,0.00,Wunderground v.1.15,2013-10-13 13:47:00,
2013-10-13 09:49:00,80.7,70.8,30.02,North,352,2.0,4.0,72,0.00,,,0.00,Wunderground v.1.15,2013-10-13 13:49:00,
2013-10-13 09:50:00,80.7,70.8,30.02,North,354,2.0,4.0,72,0.00,,,0.00,Wunderground v.1.15,2013-10-13 13:50:00,
2013-10-13 09:52:00,80.7,70.8,30.02,North,353,2.0,4.0,72,0.00,,,0.00,Wunderground v.1.15,2013-10-13 13:52:00,
2013-10-13 09:54:00,80.9,71.4,30.02,North,353,2.0,4.0,73,0.00,,,0.00,Wunderground v.1.15,2013-10-13 13:54:00,
2013-10-13 09:55:00,81.0,71.9,30.02,North,352,2.0,4.0,74,0.00,,,0.00,Wunderground v.1.15,2013-10-13 13:55:00,
2013-10-13 09:58:00,81.5,72.0,30.02,North,354,1.0,4.0,73,0.00,,,0.00,Wunderground v.1.15,2013-10-13 13:58:00,
2013-10-13 10:03:00,81.1,71.2,30.02,North,352,2.0,5.0,72,0.00,,,0.00,Wunderground v.1.15,2013-10-13 14:03:00,
2013-10-13 10:04:00,81.0,70.7,30.02,North,354,2.0,5.0,71,0.00,,,0.00,Wunderground v.1.15,2013-10-13 14:04:00,
2013-10-13 10:05:00,80.9,71.0,30.02,North,354,2.0,5.0,72,0.00,,,0.00,Wunderground v.1.15,2013-10-13 14:05:00,
2013-10-13 10:07:00,80.8,70.9,30.02,North,353,3.0,5.0,72,0.00,,,0.00,Wunderground v.1.15,2013-10-13 14:07:00,
2013-10-13 10:08:00,80.7,71.2,30.02,North,353,3.0,5.0,73,0.00,,,0.00,Wunderground v.1.15,2013-10-13 14:08:00,
2013-10-13 10:10:00,80.6,70.7,30.02,North,352,3.0,3.0,72,0.00,,,0.00,Wunderground v.1.15,2013-10-13 14:10:00,
2013-10-13 10:11:00,80.7,71.6,30.02,North,354,3.0,5.0,74,0.00,,,0.00,Wunderground v.1.15,2013-10-13 14:11:00,
2013-10-13 10:12:00,80.7,70.4,30.02,North,353,3.0,5.0,71,0.00,,,0.00,Wunderground v.1.15,2013-10-13 14:12:00,
2013-10-13 10:17:00,81.2,70.9,30.02,North,354,2.0,5.0,71,0.00,,,0.00,Wunderground v.1.15,2013-10-13 14:17:00,
2013-10-13 10:19:00,81.3,71.0,30.02,North,354,2.0,5.0,71,0.00,,,0.00,Wunderground v.1.15,2013-10-13 14:19:00,
2013-10-13 10:20:00,81.4,71.1,30.02,North,354,2.0,2.0,71,0.00,,,0.00,Wunderground v.1.15,2013-10-13 14:20:00,
2013-10-13 10:22:00,81.5,70.8,30.02,North,352,2.0,6.0,70,0.00,,,0.00,Wunderground v.1.15,2013-10-13 14:22:00,
2013-10-13 10:25:00,81.4,70.2,30.02,North,354,3.0,6.0,69,0.00,,,0.00,Wunderground v.1.15,2013-10-13 14:25:00,
2013-10-13 10:26:00,81.4,70.7,30.02,North,353,3.0,6.0,70,0.00,,,0.00,Wunderground v.1.15,2013-10-13 14:26:00,
2013-10-13 10:28:00,81.4,70.7,30.02,North,352,3.0,6.0,70,0.00,,,0.00,Wunderground v.1.15,2013-10-13 14:28:00,
2013-10-13 10:29:00,81.5,70.8,30.02,North,353,3.0,6.0,70,0.00,,,0.00,Wunderground v.1.15,2013-10-13 14:29:00,
2013-10-13 10:31:00,81.6,70.9,30.02,North,352,3.0,7.0,70,0.00,,,0.00,Wunderground v.1.15,2013-10-13 14:31:00,
2013-10-13 10:34:00,81.7,70.5,30.02,North,353,2.0,7.0,69,0.00,,,0.00,Wunderground v.1.15,2013-10-13 14:34:00,
2013-10-13 10:35:00,81.7,70.5,30.02,North,355,2.0,7.0,69,0.00,,,0.00,Wunderground v.1.15,2013-10-13 14:35:00,
2013-10-13 10:36:00,81.6,70.4,30.03,North,353,1.0,7.0,69,0.00,,,0.00,Wunderground v.1.15,2013-10-13 14:36:00,
2013-10-13 10:37:00,81.6,70.0,30.03,North,352,1.0,7.0,68,0.00,,,0.00,Wunderground v.1.15,2013-10-13 14:37:00,
2013-10-13 10:43:00,82.2,70.6,30.03,North,354,1.0,7.0,68,0.00,,,0.00,Wunderground v.1.15,2013-10-13 14:43:00,
2013-10-13 10:44:00,82.4,71.2,30.03,North,354,1.0,7.0,69,0.00,,,0.00,Wunderground v.1.15,2013-10-13 14:44:00,
2013-10-13 10:46:00,82.6,71.0,30.03,North,352,1.0,7.0,68,0.00,,,0.00,Wunderground v.1.15,2013-10-13 14:46:00,
2013-10-13 10:47:00,82.7,70.2,30.03,North,357,1.0,7.0,66,0.00,,,0.00,Wunderground v.1.15,2013-10-13 14:47:00,
2013-10-13 10:48:00,82.9,70.4,30.03,North,354,1.0,7.0,66,0.00,,,0.00,Wunderground v.1.15,2013-10-13 14:48:00,
2013-10-13 10:51:00,83.3,71.2,30.03,North,353,1.0,8.0,67,0.00,,,0.00,Wunderground v.1.15,2013-10-13 14:51:00,
2013-10-13 10:52:00,83.2,71.1,30.03,North,352,2.0,8.0,67,0.00,,,0.00,Wunderground v.1.15,2013-10-13 14:52:00,
2013-10-13 10:56:00,82.1,70.9,30.03,North,352,3.0,8.0,69,0.00,,,0.00,Wunderground v.1.15,2013-10-13 14:56:00,
2013-10-13 10:58:00,81.8,71.1,30.03,North,351,3.0,8.0,70,0.00,,,0.00,Wunderground v.1.15,2013-10-13 14:58:00,
2013-10-13 11:00:00,81.5,70.8,30.03,North,351,4.0,4.0,70,0.00,,,0.00,Wunderground v.1.15,2013-10-13 15:00:00,
2013-10-13 11:01:00,81.4,71.1,30.03,North,352,4.0,4.0,71,0.00,,,0.00,Wunderground v.1.15,2013-10-13 15:01:00,
2013-10-13 11:03:00,81.3,70.6,30.03,NNW,345,4.0,4.0,70,0.00,,,0.00,Wunderground v.1.15,2013-10-13 15:03:00,
2013-10-13 11:05:00,81.2,70.5,30.03,NW,323,4.0,4.0,70,0.00,,,0.00,Wunderground v.1.15,2013-10-13 15:05:00,
2013-10-13 11:09:00,81.2,70.1,30.03,NW,323,3.0,4.0,69,0.00,,,0.00,Wunderground v.1.15,2013-10-13 15:09:00,
2013-10-13 11:10:00,81.3,71.0,30.03,NW,326,3.0,5.0,71,0.00,,,0.00,Wunderground v.1.15,2013-10-13 15:10:00,
2013-10-13 11:11:00,81.4,69.8,30.03,NW,325,3.0,5.0,68,0.00,,,0.00,Wunderground v.1.15,2013-10-13 15:11:00,
2013-10-13 11:13:00,81.5,69.9,30.03,NW,326,3.0,5.0,68,0.00,,,0.00,Wunderground v.1.15,2013-10-13 15:13:00,
2013-10-13 11:16:00,81.6,69.6,30.03,NNW,338,3.0,5.0,67,0.00,,,0.00,Wunderground v.1.15,2013-10-13 15:16:00,
2013-10-13 11:18:00,81.7,68.8,30.03,NW,325,3.0,5.0,65,0.00,,,0.00,Wunderground v.1.15,2013-10-13 15:18:00,
2013-10-13 11:20:00,81.6,68.2,30.03,NNW,346,2.0,3.0,64,0.00,,,0.00,Wunderground v.1.15,2013-10-13 15:20:00,
2013-10-13 11:22:00,81.5,68.1,30.03,NNW,340,2.0,4.0,64,0.00,,,0.00,Wunderground v.1.15,2013-10-13 15:22:00,
2013-10-13 11:23:00,81.5,68.6,30.03,NNW,339,2.0,4.0,65,0.00,,,0.00,Wunderground v.1.15,2013-10-13 15:23:00,
2013-10-13 11:25:00,81.4,68.5,30.03,WNW,299,2.0,4.0,65,0.00,,,0.00,Wunderground v.1.15,2013-10-13 15:25:00,
2013-10-13 11:27:00,81.4,68.9,30.03,NW,309,2.0,4.0,66,0.00,,,0.00,Wunderground v.1.15,2013-10-13 15:27:00,
2013-10-13 11:29:00,81.3,69.3,30.02,NW,326,2.0,4.0,67,0.00,,,0.00,Wunderground v.1.15,2013-10-13 15:29:00,
2013-10-13 11:30:00,81.2,69.6,30.03,NW,326,2.0,3.0,68,0.00,,,0.00,Wunderground v.1.15,2013-10-13 15:30:00,
2013-10-13 11:34:00,81.2,69.2,30.03,NW,326,2.0,10.0,67,0.00,,,0.00,Wunderground v.1.15,2013-10-13 15:34:00,
2013-10-13 11:37:00,81.4,69.4,30.02,North,354,2.0,10.0,67,0.00,,,0.00,Wunderground v.1.15,2013-10-13 15:37:00,
2013-10-13 11:38:00,81.5,69.0,30.02,NNW,340,2.0,10.0,66,0.00,,,0.00,Wunderground v.1.15,2013-10-13 15:38:00,
2013-10-13 11:39:00,81.7,69.2,30.02,NNW,330,2.0,10.0,66,0.00,,,0.00,Wunderground v.1.15,2013-10-13 15:39:00,
2013-10-13 11:40:00,82.0,70.0,30.02,WNW,297,2.0,10.0,67,0.00,,,0.00,Wunderground v.1.15,2013-10-13 15:40:00,
2013-10-13 11:42:00,82.6,69.2,30.02,NW,313,2.0,10.0,64,0.00,,,0.00,Wunderground v.1.15,2013-10-13 15:42:00,
2013-10-13 11:43:00,82.8,68.4,30.02,North,352,2.0,10.0,62,0.00,,,0.00,Wunderground v.1.15,2013-10-13 15:43:00,
2013-10-13 11:44:00,82.9,68.1,30.02,NW,318,2.0,10.0,61,0.00,,,0.00,Wunderground v.1.15,2013-10-13 15:44:00,
2013-10-13 11:48:00,83.1,67.8,30.02,North,8,2.0,10.0,60,0.00,,,0.00,Wunderground v.1.15,2013-10-13 15:48:00,
2013-10-13 11:50:00,83.4,68.1,30.02,NNE,29,2.0,10.0,60,0.00,,,0.00,Wunderground v.1.15,2013-10-13 15:50:00,
2013-10-13 11:51:00,83.4,68.5,30.02,NE,45,2.0,10.0,61,0.00,,,0.00,Wunderground v.1.15,2013-10-13 15:51:00,
2013-10-13 11:52:00,83.4,68.1,30.02,West,262,2.0,10.0,60,0.00,,,0.00,Wunderground v.1.15,2013-10-13 15:52:00,
2013-10-13 11:57:00,83.4,67.1,30.02,NNE,25,2.0,10.0,58,0.00,,,0.00,Wunderground v.1.15,2013-10-13 15:57:00,
2013-10-13 11:59:00,83.4,67.6,30.02,North,4,1.0,10.0,59,0.00,,,0.00,Wunderground v.1.15,2013-10-13 15:59:00,
2013-10-13 12:00:00,83.4,67.6,30.02,NW,320,1.0,4.0,59,0.00,,,0.00,Wunderground v.1.15,2013-10-13 16:00:00,
2013-10-13 12:02:00,83.4,68.1,30.02,West,277,1.0,4.0,60,0.00,,,0.00,Wunderground v.1.15,2013-10-13 16:02:00,
2013-10-13 12:03:00,83.3,67.5,30.02,North,359,1.0,4.0,59,0.00,,,0.00,Wunderground v.1.15,2013-10-13 16:03:00,
2013-10-13 12:04:00,83.3,68.0,30.02,NNE,19,1.0,4.0,60,0.00,,,0.00,Wunderground v.1.15,2013-10-13 16:04:00,
2013-10-13 12:09:00,83.5,67.7,30.02,WNW,288,1.0,4.0,59,0.00,,,0.00,Wunderground v.1.15,2013-10-13 16:09:00,
2013-10-13 12:10:00,83.5,68.2,30.02,WNW,302,1.0,2.0,60,0.00,,,0.00,Wunderground v.1.15,2013-10-13 16:10:00,
2013-10-13 12:11:00,83.5,68.2,30.02,NW,325,1.0,2.0,60,0.00,,,0.00,Wunderground v.1.15,2013-10-13 16:11:00,
2013-10-13 12:13:00,83.5,68.6,30.02,West,263,1.0,4.0,61,0.00,,,0.00,Wunderground v.1.15,2013-10-13 16:13:00,
2013-10-13 12:14:00,83.4,68.5,30.02,NW,314,1.0,4.0,61,0.00,,,0.00,Wunderground v.1.15,2013-10-13 16:14:00,
2013-10-13 12:18:00,83.2,68.3,30.02,NNW,330,2.0,4.0,61,0.00,,,0.00,Wunderground v.1.15,2013-10-13 16:18:00,
2013-10-13 12:20:00,83.1,68.7,30.02,NNW,330,2.0,3.0,62,0.00,,,0.00,Wunderground v.1.15,2013-10-13 16:20:00,
2013-10-13 12:22:00,83.1,68.7,30.01,NNW,345,2.0,3.0,62,0.00,,,0.00,Wunderground v.1.15,2013-10-13 16:22:00,
2013-10-13 12:24:00,83.0,67.7,30.01,North,349,3.0,4.0,60,0.00,,,0.00,Wunderground v.1.15,2013-10-13 16:24:00,
2013-10-13 12:25:00,82.9,68.1,30.01,NNW,346,3.0,4.0,61,0.00,,,0.00,Wunderground v.1.15,2013-10-13 16:25:00,
2013-10-13 12:27:00,82.8,67.5,30.01,NNW,345,3.0,5.0,60,0.00,,,0.00,Wunderground v.1.15,2013-10-13 16:27:00,
2013-10-13 12:30:00,82.7,67.4,30.01,NNW,332,3.0,3.0,60,0.00,,,0.00,Wunderground v.1.15,2013-10-13 16:30:00,
2013-10-13 12:31:00,82.7,66.9,30.01,NNW,330,3.0,8.0,59,0.00,,,0.00,Wunderground v.1.15,2013-10-13 16:31:00,
2013-10-13 12:33:00,82.6,66.8,30.01,NW,323,3.0,8.0,59,0.00,,,0.00,Wunderground v.1.15,2013-10-13 16:33:00,
2013-10-13 12:34:00,82.7,67.4,30.01,NNW,331,2.0,8.0,60,0.00,,,0.00,Wunderground v.1.15,2013-10-13 16:34:00,
2013-10-13 12:37:00,82.7,65.9,30.01,WNW,288,2.0,8.0,57,0.00,,,0.00,Wunderground v.1.15,2013-10-13 16:37:00,
2013-10-13 12:38:00,82.8,66.5,30.01,NNW,333,2.0,8.0,58,0.00,,,0.00,Wunderground v.1.15,2013-10-13 16:38:00,
2013-10-13 12:40:00,83.0,66.7,30.01,West,271,2.0,8.0,58,0.00,,,0.00,Wunderground v.1.15,2013-10-13 16:40:00,
2013-10-13 12:41:00,83.1,66.8,30.01,West,266,2.0,8.0,58,0.00,,,0.00,Wunderground v.1.15,2013-10-13 16:41:00,
2013-10-13 12:43:00,83.4,67.1,30.01,SW,228,1.0,8.0,58,0.00,,,0.00,Wunderground v.1.15,2013-10-13 16:43:00,
2013-10-13 12:47:00,84.0,66.6,30.01,South,191,3.0,8.0,56,0.00,,,0.00,Wunderground v.1.15,2013-10-13 16:47:00,
2013-10-13 12:48:00,84.1,67.2,30.01,SSW,210,3.0,8.0,57,0.00,,,0.00,Wunderground v.1.15,2013-10-13 16:48:00,
2013-10-13 12:50:00,84.3,65.8,30.01,SW,222,3.0,3.0,54,0.00,,,0.00,Wunderground v.1.15,2013-10-13 16:50:00,
2013-10-13 12:51:00,84.4,65.9,30.01,SSE,167,2.0,4.0,54,0.00,,,0.00,Wunderground v.1.15,2013-10-13 16:51:00,
2013-10-13 12:52:00,84.5,66.0,30.01,South,190,3.0,8.0,54,0.00,,,0.00,Wunderground v.1.15,2013-10-13 16:52:00,
2013-10-13 12:57:00,85.0,66.5,30.01,South,177,1.0,8.0,54,0.00,,,0.00,Wunderground v.1.15,2013-10-13 16:57:00,
2013-10-13 12:58:00,85.2,67.2,30.00,SE,128,1.0,8.0,55,0.00,,,0.00,Wunderground v.1.15,2013-10-13 16:58:00,
2013-10-13 12:59:00,85.2,66.7,30.01,SE,138,1.0,8.0,54,0.00,,,0.00,Wunderground v.1.15,2013-10-13 16:59:00,
2013-10-13 13:00:00,85.3,67.3,30.01,SW,217,2.0,2.0,55,0.00,,,0.00,Wunderground v.1.15,2013-10-13 17:00:00,
2013-10-13 13:01:00,85.3,66.8,30.01,South,191,2.0,2.0,54,0.00,,,0.00,Wunderground v.1.15,2013-10-13 17:01:00,
2013-10-13 13:03:00,85.2,66.1,30.01,ENE,60,2.0,2.0,53,0.00,,,0.00,Wunderground v.1.15,2013-10-13 17:03:00,
2013-10-13 13:05:00,85.1,66.0,30.00,East,92,2.0,2.0,53,0.00,,,0.00,Wunderground v.1.15,2013-10-13 17:05:00,
2013-10-13 13:08:00,85.3,66.2,30.00,NW,323,2.0,2.0,53,0.00,,,0.00,Wunderground v.1.15,2013-10-13 17:08:00,
2013-10-13 13:10:00,85.3,66.2,30.00,NNW,347,2.0,2.0,53,0.00,,,0.00,Wunderground v.1.15,2013-10-13 17:10:00,
2013-10-13 13:11:00,85.4,66.3,30.00,NNW,337,2.0,2.0,53,0.00,,,0.00,Wunderground v.1.15,2013-10-13 17:11:00,
2013-10-13 13:14:00,85.3,66.2,30.00,NNW,330,1.0,4.0,53,0.00,,,0.00,Wunderground v.1.15,2013-10-13 17:14:00,
2013-10-13 13:15:00,85.2,65.6,30.00,NE,48,2.0,4.0,52,0.00,,,0.00,Wunderground v.1.15,2013-10-13 17:15:00,
2013-10-13 13:17:00,85.1,64.9,30.00,North,349,1.0,4.0,51,0.00,,,0.00,Wunderground v.1.15,2013-10-13 17:17:00,
2013-10-13 13:21:00,84.8,65.2,30.00,WNW,282,2.0,2.0,52,0.00,,,0.00,Wunderground v.1.15,2013-10-13 17:21:00,
2013-10-13 13:22:00,84.8,65.2,30.00,SW,231,2.0,6.0,52,0.00,,,0.00,Wunderground v.1.15,2013-10-13 17:22:00,
2013-10-13 13:23:00,84.7,65.1,30.00,SSW,207,2.0,6.0,52,0.00,,,0.00,Wunderground v.1.15,2013-10-13 17:23:00,
2013-10-13 13:25:00,84.7,65.1,30.00,SE,139,2.0,6.0,52,0.00,,,0.00,Wunderground v.1.15,2013-10-13 17:25:00,
2013-10-13 13:28:00,84.8,65.2,29.99,SSW,209,2.0,6.0,52,0.00,,,0.00,Wunderground v.1.15,2013-10-13 17:28:00,
2013-10-13 13:29:00,85.0,64.8,29.99,SSE,168,2.0,6.0,51,0.00,,,0.00,Wunderground v.1.15,2013-10-13 17:29:00,
2013-10-13 13:30:00,85.1,64.9,29.99,WSW,238,2.0,2.0,51,0.00,,,0.00,Wunderground v.1.15,2013-10-13 17:30:00,
2013-10-13 13:31:00,85.3,66.8,29.99,SE,134,2.0,5.0,54,0.00,,,0.00,Wunderground v.1.15,2013-10-13 17:31:00,
2013-10-13 13:35:00,85.7,66.6,29.99,South,177,2.0,8.0,53,0.00,,,0.00,Wunderground v.1.15,2013-10-13 17:35:00,
2013-10-13 13:36:00,85.7,65.5,29.99,East,82,3.0,8.0,51,0.00,,,0.00,Wunderground v.1.15,2013-10-13 17:36:00,
2013-10-13 13:37:00,85.6,65.4,29.99,SE,141,2.0,8.0,51,0.00,,,0.00,Wunderground v.1.15,2013-10-13 17:37:00,
2013-10-13 13:38:00,85.5,65.9,29.99,ESE,106,2.0,8.0,52,0.00,,,0.00,Wunderground v.1.15,2013-10-13 17:38:00,
2013-10-13 13:42:00,85.5,67.0,29.99,East,91,2.0,8.0,54,0.00,,,0.00,Wunderground v.1.15,2013-10-13 17:42:00,
2013-10-13 13:43:00,85.5,67.0,29.99,SSW,200,2.0,8.0,54,0.00,,,0.00,Wunderground v.1.15,2013-10-13 17:43:00,
2013-10-13 13:44:00,85.5,66.4,29.99,SW,232,2.0,8.0,53,0.00,,,0.00,Wunderground v.1.15,2013-10-13 17:44:00,
2013-10-13 13:46:00,85.6,66.0,29.99,NNW,340,2.0,8.0,52,0.00,,,0.00,Wunderground v.1.15,2013-10-13 17:46:00,
2013-10-13 13:49:00,85.6,66.5,29.99,South,188,2.0,8.0,53,0.00,,,0.00,Wunderground v.1.15,2013-10-13 17:49:00,
2013-10-13 13:50:00,85.5,66.4,29.99,North,4,2.0,8.0,53,0.00,,,0.00,Wunderground v.1.15,2013-10-13 17:50:00,
2013-10-13 13:51:00,85.4,65.8,29.99,NNE,15,2.0,8.0,52,0.00,,,0.00,Wunderground v.1.15,2013-10-13 17:51:00,
2013-10-13 13:52:00,85.3,65.7,29.99,NW,324,2.0,8.0,52,0.00,,,0.00,Wunderground v.1.15,2013-10-13 17:52:00,
2013-10-13 13:57:00,85.2,65.6,29.99,NNW,328,2.0,8.0,52,0.00,,,0.00,Wunderground v.1.15,2013-10-13 17:57:00,
2013-10-13 13:58:00,85.2,66.1,29.99,NNE,29,2.0,8.0,53,0.00,,,0.00,Wunderground v.1.15,2013-10-13 17:58:00,
2013-10-13 13:59:00,85.2,65.6,29.99,North,355,2.0,8.0,52,0.00,,,0.00,Wunderground v.1.15,2013-10-13 17:59:00,
2013-10-13 14:03:00,85.0,66.0,29.98,NW,318,2.0,3.0,53,0.00,,,0.00,Wunderground v.1.15,2013-10-13 18:03:00,
2013-10-13 14:04:00,84.9,65.9,29.98,NNW,344,2.0,3.0,53,0.00,,,0.00,Wunderground v.1.15,2013-10-13 18:04:00,
2013-10-13 14:05:00,84.8,65.8,29.98,NNE,17,2.0,3.0,53,0.00,,,0.00,Wunderground v.1.15,2013-10-13 18:05:00,
2013-10-13 14:06:00,84.8,65.8,29.98,NNW,344,2.0,3.0,53,0.00,,,0.00,Wunderground v.1.15,2013-10-13 18:06:00,
2013-10-13 14:09:00,85.0,66.0,29.98,NNW,337,2.0,9.0,53,0.00,,,0.00,Wunderground v.1.15,2013-10-13 18:09:00,
2013-10-13 14:11:00,85.2,65.6,29.98,WNW,302,2.0,3.0,52,0.00,,,0.00,Wunderground v.1.15,2013-10-13 18:11:00,
2013-10-13 14:15:00,85.1,66.0,29.98,West,270,3.0,3.0,53,0.00,,,0.00,Wunderground v.1.15,2013-10-13 18:15:00,
2013-10-13 14:18:00,85.0,66.0,29.98,SSW,193,3.0,5.0,53,0.00,,,0.00,Wunderground v.1.15,2013-10-13 18:18:00,
2013-10-13 14:19:00,85.1,65.5,29.98,South,188,3.0,5.0,52,0.00,,,0.00,Wunderground v.1.15,2013-10-13 18:19:00,
2013-10-13 14:20:00,85.1,65.5,29.98,South,191,3.0,4.0,52,0.00,,,0.00,Wunderground v.1.15,2013-10-13 18:20:00,
2013-10-13 14:21:00,85.1,66.0,29.98,WSW,245,3.0,4.0,53,0.00,,,0.00,Wunderground v.1.15,2013-10-13 18:21:00,
2013-10-13 14:23:00,85.4,65.2,29.98,SSE,159,2.0,4.0,51,0.00,,,0.00,Wunderground v.1.15,2013-10-13 18:23:00,
2013-10-13 14:26:00,85.9,68.4,29.98,ENE,58,2.0,4.0,56,0.00,,,0.00,Wunderground v.1.15,2013-10-13 18:26:00,
2013-10-13 14:27:00,85.9,66.8,29.98,SE,141,2.0,4.0,53,0.00,,,0.00,Wunderground v.1.15,2013-10-13 18:27:00,
2013-10-13 14:28:00,85.9,66.2,29.98,SSE,148,2.0,4.0,52,0.00,,,0.00,Wunderground v.1.15,2013-10-13 18:28:00,
2013-10-13 14:29:00,86.0,65.8,29.98,East,100,2.0,4.0,51,0.00,,,0.00,Wunderground v.1.15,2013-10-13 18:29:00,
2013-10-13 14:33:00,85.9,65.1,29.98,NNW,342,2.0,10.0,50,0.00,,,0.00,Wunderground v.1.15,2013-10-13 18:33:00,
2013-10-13 14:35:00,85.6,66.0,29.98,West,281,2.0,10.0,52,0.00,,,0.00,Wunderground v.1.15,2013-10-13 18:35:00,
2013-10-13 14:36:00,85.4,65.2,29.98,WSW,241,2.0,10.0,51,0.00,,,0.00,Wunderground v.1.15,2013-10-13 18:36:00,
2013-10-13 14:38:00,85.2,65.0,29.98,North,4,2.0,10.0,51,0.00,,,0.00,Wunderground v.1.15,2013-10-13 18:38:00,
2013-10-13 14:39:00,85.3,65.7,29.98,SE,134,2.0,10.0,52,0.00,,,0.00,Wunderground v.1.15,2013-10-13 18:39:00,
2013-10-13 14:42:00,85.6,65.4,29.97,ENE,66,3.0,10.0,51,0.00,,,0.00,Wunderground v.1.15,2013-10-13 18:42:00,
2013-10-13 14:43:00,85.7,65.5,29.97,NNW,330,2.0,10.0,51,0.00,,,0.00,Wunderground v.1.15,2013-10-13 18:43:00,
2013-10-13 14:44:00,85.8,65.0,29.97,WNW,282,2.0,10.0,50,0.00,,,0.00,Wunderground v.1.15,2013-10-13 18:44:00,
2013-10-13 14:49:00,85.9,65.7,29.97,NNW,332,3.0,10.0,51,0.00,,,0.00,Wunderground v.1.15,2013-10-13 18:49:00,
2013-10-13 14:50:00,86.0,66.9,29.97,NNW,333,3.0,10.0,53,0.00,,,0.00,Wunderground v.1.15,2013-10-13 18:50:00,
2013-10-13 14:52:00,86.2,66.5,29.97,North,350,3.0,10.0,52,0.00,,,0.00,Wunderground v.1.15,2013-10-13 18:52:00,
2013-10-13 14:53:00,86.3,66.0,29.97,NNW,340,3.0,10.0,51,0.00,,,0.00,Wunderground v.1.15,2013-10-13 18:53:00,
2013-10-13 14:55:00,86.5,65.7,29.97,NNW,342,3.0,10.0,50,0.00,,,0.00,Wunderground v.1.15,2013-10-13 18:55:00,
2013-10-13 14:56:00,86.6,65.7,29.97,North,350,3.0,10.0,50,0.00,,,0.00,Wunderground v.1.15,2013-10-13 18:56:00,
2013-10-13 14:57:00,86.8,65.3,29.97,NNW,340,3.0,10.0,49,0.00,,,0.00,Wunderground v.1.15,2013-10-13 18:57:00,
2013-10-13 14:58:00,86.9,65.4,29.97,North,11,3.0,10.0,49,0.00,,,0.00,Wunderground v.1.15,2013-10-13 18:58:00,
2013-10-13 15:00:00,87.0,65.5,29.97,NNW,328,3.0,3.0,49,0.00,,,0.00,Wunderground v.1.15,2013-10-13 19:00:00,
2013-10-13 15:03:00,87.2,65.1,29.97,NE,38,2.0,3.0,48,0.00,,,0.00,Wunderground v.1.15,2013-10-13 19:03:00,
2013-10-13 15:05:00,87.0,65.5,29.97,WNW,282,2.0,3.0,49,0.00,,,0.00,Wunderground v.1.15,2013-10-13 19:05:00,
2013-10-13 15:07:00,86.6,64.6,29.97,NNW,338,2.0,5.0,48,0.00,,,0.00,Wunderground v.1.15,2013-10-13 19:07:00,
2013-10-13 15:09:00,86.0,65.2,29.97,NNW,340,2.0,5.0,50,0.00,,,0.00,Wunderground v.1.15,2013-10-13 19:09:00,
2013-10-13 15:11:00,85.9,65.1,29.97,NNW,338,2.0,2.0,50,0.00,,,0.00,Wunderground v.1.15,2013-10-13 19:11:00,
2013-10-13 15:12:00,85.8,65.6,29.97,NNW,338,2.0,3.0,51,0.00,,,0.00,Wunderground v.1.15,2013-10-13 19:12:00,
2013-10-13 15:13:00,85.9,65.7,29.97,North,10,2.0,3.0,51,0.00,,,0.00,Wunderground v.1.15,2013-10-13 19:13:00,
2013-10-13 15:16:00,86.2,65.4,29.97,NNE,25,2.0,3.0,50,0.00,,,0.00,Wunderground v.1.15,2013-10-13 19:16:00,
2013-10-13 15:17:00,86.3,65.5,29.96,WSW,245,2.0,3.0,50,0.00,,,0.00,Wunderground v.1.15,2013-10-13 19:17:00,
2013-10-13 15:22:00,87.0,66.1,29.96,NE,39,2.0,2.0,50,0.00,,,0.00,Wunderground v.1.15,2013-10-13 19:22:00,
2013-10-13 15:23:00,87.2,66.3,29.96,NNW,335,2.0,3.0,50,0.00,,,0.00,Wunderground v.1.15,2013-10-13 19:23:00,
2013-10-13 15:24:00,87.4,65.9,29.96,NNW,334,2.0,3.0,49,0.00,,,0.00,Wunderground v.1.15,2013-10-13 19:24:00,
2013-10-13 15:25:00,87.5,66.0,29.96,NNW,333,2.0,3.0,49,0.00,,,0.00,Wunderground v.1.15,2013-10-13 19:25:00,
2013-10-13 15:29:00,87.5,64.2,29.96,NE,41,2.0,8.0,46,0.00,,,0.00,Wunderground v.1.15,2013-10-13 19:29:00,
2013-10-13 15:32:00,87.0,64.9,29.96,NE,39,3.0,9.0,48,0.00,,,0.00,Wunderground v.1.15,2013-10-13 19:32:00,
2013-10-13 15:33:00,87.0,64.9,29.96,NNE,14,3.0,9.0,48,0.00,,,0.00,Wunderground v.1.15,2013-10-13 19:33:00,
2013-10-13 15:34:00,87.0,64.3,29.96,NW,326,3.0,9.0,47,0.00,,,0.00,Wunderground v.1.15,2013-10-13 19:34:00,
2013-10-13 15:36:00,87.0,65.5,29.96,NNE,30,3.0,9.0,49,0.00,,,0.00,Wunderground v.1.15,2013-10-13 19:36:00,
2013-10-13 15:39:00,87.2,64.5,29.96,NNE,26,2.0,9.0,47,0.00,,,0.00,Wunderground v.1.15,2013-10-13 19:39:00,
2013-10-13 15:41:00,87.4,65.3,29.96,West,271,2.0,9.0,48,0.00,,,0.00,Wunderground v.1.15,2013-10-13 19:41:00,
2013-10-13 15:42:00,87.5,64.8,29.96,SSW,205,1.0,9.0,47,0.00,,,0.00,Wunderground v.1.15,2013-10-13 19:42:00,
2013-10-13 15:43:00,87.7,65.6,29.96,SSW,201,1.0,9.0,48,0.00,,,0.00,Wunderground v.1.15,2013-10-13 19:43:00,
2013-10-13 15:45:00,87.7,65.0,29.96,SW,235,1.0,9.0,47,0.00,,,0.00,Wunderground v.1.15,2013-10-13 19:45:00,
2013-10-13 15:48:00,87.7,64.4,29.96,SE,131,1.0,9.0,46,0.00,,,0.00,Wunderground v.1.15,2013-10-13 19:48:00,
2013-10-13 15:49:00,87.7,64.4,29.96,SE,126,2.0,9.0,46,0.00,,,0.00,Wunderground v.1.15,2013-10-13 19:49:00,
2013-10-13 15:52:00,87.5,65.4,29.95,ENE,75,2.0,9.0,48,0.00,,,0.00,Wunderground v.1.15,2013-10-13 19:52:00,
2013-10-13 15:53:00,87.4,64.7,29.95,NE,45,2.0,9.0,47,0.00,,,0.00,Wunderground v.1.15,2013-10-13 19:53:00,
2013-10-13 15:54:00,87.4,64.7,29.95,North,10,2.0,9.0,47,0.00,,,0.00,Wunderground v.1.15,2013-10-13 19:54:00,
2013-10-13 15:56:00,87.4,65.3,29.95,NNW,344,2.0,9.0,48,0.00,,,0.00,Wunderground v.1.15,2013-10-13 19:56:00,
2013-10-13 15:58:00,87.4,64.7,29.95,WSW,238,2.0,9.0,47,0.00,,,0.00,Wunderground v.1.15,2013-10-13 19:58:00,
2013-10-13 16:00:00,87.5,64.2,29.95,South,190,2.0,2.0,46,0.00,,,0.00,Wunderground v.1.15,2013-10-13 20:00:00,
2013-10-13 16:01:00,87.4,64.1,29.95,SE,134,2.0,2.0,46,0.00,,,0.00,Wunderground v.1.15,2013-10-13 20:01:00,
2013-10-13 16:03:00,87.4,64.1,29.95,SE,146,2.0,2.0,46,0.00,,,0.00,Wunderground v.1.15,2013-10-13 20:03:00,
2013-10-13 16:05:00,87.2,64.5,29.95,West,281,2.0,4.0,47,0.00,,,0.00,Wunderground v.1.15,2013-10-13 20:05:00,
2013-10-13 16:06:00,87.2,64.5,29.95,SE,146,2.0,4.0,47,0.00,,,0.00,Wunderground v.1.15,2013-10-13 20:06:00,
2013-10-13 16:07:00,87.2,65.1,29.95,SE,136,2.0,4.0,48,0.00,,,0.00,Wunderground v.1.15,2013-10-13 20:07:00,
2013-10-13 16:11:00,87.0,66.1,29.95,NW,318,2.0,2.0,50,0.00,,,0.00,Wunderground v.1.15,2013-10-13 20:11:00,
2013-10-13 16:12:00,87.0,64.3,29.95,NE,35,2.0,2.0,47,0.00,,,0.00,Wunderground v.1.15,2013-10-13 20:12:00,
2013-10-13 16:13:00,86.9,64.2,29.95,North,356,2.0,3.0,47,0.00,,,0.00,Wunderground v.1.15,2013-10-13 20:13:00,
2013-10-13 16:16:00,86.8,65.3,29.95,NW,312,2.0,3.0,49,0.00,,,0.00,Wunderground v.1.15,2013-10-13 20:16:00,
2013-10-13 16:17:00,86.9,65.4,29.95,NNW,338,2.0,3.0,49,0.00,,,0.00,Wunderground v.1.15,2013-10-13 20:17:00,
2013-10-13 16:19:00,86.8,64.8,29.95,WNW,283,2.0,3.0,48,0.00,,,0.00,Wunderground v.1.15,2013-10-13 20:19:00,
2013-10-13 16:20:00,86.8,64.8,29.95,NNE,24,2.0,3.0,48,0.00,,,0.00,Wunderground v.1.15,2013-10-13 20:20:00,
2013-10-13 16:23:00,86.7,65.3,29.95,NW,304,2.0,6.0,49,0.00,,,0.00,Wunderground v.1.15,2013-10-13 20:23:00,
2013-10-13 16:24:00,86.6,65.2,29.95,West,275,2.0,6.0,49,0.00,,,0.00,Wunderground v.1.15,2013-10-13 20:24:00,
2013-10-13 16:27:00,86.5,65.7,29.94,NNE,17,2.0,6.0,50,0.00,,,0.00,Wunderground v.1.15,2013-10-13 20:27:00,
2013-10-13 16:28:00,86.5,65.1,29.94,North,6,2.0,6.0,49,0.00,,,0.00,Wunderground v.1.15,2013-10-13 20:28:00,
2013-10-13 16:29:00,86.7,66.4,29.94,NW,314,2.0,6.0,51,0.00,,,0.00,Wunderground v.1.15,2013-10-13 20:29:00,
2013-10-13 16:31:00,86.8,65.3,29.95,NNW,340,2.0,9.0,49,0.00,,,0.00,Wunderground v.1.15,2013-10-13 20:31:00,
2013-10-13 16:33:00,86.7,65.3,29.95,NNW,330,2.0,9.0,49,0.00,,,0.00,Wunderground v.1.15,2013-10-13 20:33:00,
2013-10-13 16:34:00,86.7,65.3,29.94,NE,41,2.0,9.0,49,0.00,,,0.00,Wunderground v.1.15,2013-10-13 20:34:00,
2013-10-13 16:36:00,86.7,65.3,29.94,North,9,2.0,9.0,49,0.00,,,0.00,Wunderground v.1.15,2013-10-13 20:36:00,
2013-10-13 16:38:00,86.8,65.3,29.94,North,8,2.0,9.0,49,0.00,,,0.00,Wunderground v.1.15,2013-10-13 20:38:00,
2013-10-13 16:41:00,86.6,65.2,29.94,North,355,3.0,9.0,49,0.00,,,0.00,Wunderground v.1.15,2013-10-13 20:41:00,
2013-10-13 16:42:00,86.5,65.7,29.94,NNW,346,3.0,9.0,50,0.00,,,0.00,Wunderground v.1.15,2013-10-13 20:42:00,
2013-10-13 16:46:00,86.1,65.9,29.94,North,5,4.0,9.0,51,0.00,,,0.00,Wunderground v.1.15,2013-10-13 20:46:00,
2013-10-13 16:47:00,86.1,66.4,29.94,NNW,346,4.0,9.0,52,0.00,,,0.00,Wunderground v.1.15,2013-10-13 20:47:00,
2013-10-13 16:48:00,86.1,66.4,29.94,NNW,330,4.0,9.0,52,0.00,,,0.00,Wunderground v.1.15,2013-10-13 20:48:00,
2013-10-13 16:49:00,86.1,65.9,29.94,NNW,337,4.0,9.0,51,0.00,,,0.00,Wunderground v.1.15,2013-10-13 20:49:00,
2013-10-13 16:50:00,86.1,65.9,29.94,NW,323,4.0,4.0,51,0.00,,,0.00,Wunderground v.1.15,2013-10-13 20:50:00,
2013-10-13 16:53:00,86.2,65.9,29.94,NNW,341,3.0,9.0,51,0.00,,,0.00,Wunderground v.1.15,2013-10-13 20:53:00,
2013-10-13 16:54:00,86.1,65.9,29.94,NNW,343,3.0,9.0,51,0.00,,,0.00,Wunderground v.1.15,2013-10-13 20:54:00,
2013-10-13 16:55:00,86.1,65.9,29.94,NNW,341,3.0,9.0,51,0.00,,,0.00,Wunderground v.1.15,2013-10-13 20:55:00,
2013-10-13 16:56:00,86.1,66.4,29.94,NNW,342,2.0,9.0,52,0.00,,,0.00,Wunderground v.1.15,2013-10-13 20:56:00,
2013-10-13 16:59:00,85.9,65.7,29.94,NW,324,3.0,9.0,51,0.00,,,0.00,Wunderground v.1.15,2013-10-13 20:59:00,
2013-10-13 17:00:00,85.6,66.0,29.94,NNW,328,3.0,3.0,52,0.00,,,0.00,Wunderground v.1.15,2013-10-13 21:00:00,
2013-10-13 17:01:00,85.5,65.9,29.94,NNE,24,3.0,3.0,52,0.00,,,0.00,Wunderground v.1.15,2013-10-13 21:01:00,
2013-10-13 17:02:00,85.5,65.9,29.94,ENE,60,3.0,3.0,52,0.00,,,0.00,Wunderground v.1.15,2013-10-13 21:02:00,
2013-10-13 17:05:00,85.3,66.2,29.94,South,178,2.0,3.0,53,0.00,,,0.00,Wunderground v.1.15,2013-10-13 21:05:00,
2013-10-13 17:07:00,85.3,66.2,29.94,NW,304,3.0,3.0,53,0.00,,,0.00,Wunderground v.1.15,2013-10-13 21:07:00,
2013-10-13 17:09:00,85.3,65.7,29.94,SSW,198,2.0,7.0,52,0.00,,,0.00,Wunderground v.1.15,2013-10-13 21:09:00,
2013-10-13 17:13:00,85.4,66.3,29.94,WNW,294,2.0,2.0,53,0.00,,,0.00,Wunderground v.1.15,2013-10-13 21:13:00,
2013-10-13 17:14:00,85.5,66.4,29.94,SSW,211,2.0,3.0,53,0.00,,,0.00,Wunderground v.1.15,2013-10-13 21:14:00,
2013-10-13 17:19:00,85.6,66.0,29.94,SSW,201,2.0,3.0,52,0.00,,,0.00,Wunderground v.1.15,2013-10-13 21:19:00,
2013-10-13 17:21:00,85.5,65.9,29.94,SW,229,2.0,2.0,52,0.00,,,0.00,Wunderground v.1.15,2013-10-13 21:21:00,
2013-10-13 17:22:00,85.5,65.9,29.94,South,188,2.0,2.0,52,0.00,,,0.00,Wunderground v.1.15,2013-10-13 21:22:00,
2013-10-13 17:23:00,85.5,65.9,29.94,WNW,300,2.0,2.0,52,0.00,,,0.00,Wunderground v.1.15,2013-10-13 21:23:00,
2013-10-13 17:27:00,85.2,65.6,29.94,South,191,2.0,3.0,52,0.00,,,0.00,Wunderground v.1.15,2013-10-13 21:27:00,
2013-10-13 17:28:00,85.1,65.5,29.94,SSW,202,2.0,6.0,52,0.00,,,0.00,Wunderground v.1.15,2013-10-13 21:28:00,
2013-10-13 17:31:00,84.8,65.8,29.94,SSW,194,2.0,11.0,53,0.00,,,0.00,Wunderground v.1.15,2013-10-13 21:31:00,
2013-10-13 17:34:00,84.6,65.0,29.94,WNW,297,2.0,11.0,52,0.00,,,0.00,Wunderground v.1.15,2013-10-13 21:34:00,
2013-10-13 17:35:00,84.5,65.5,29.94,South,189,2.0,11.0,53,0.00,,,0.00,Wunderground v.1.15,2013-10-13 21:35:00,
2013-10-13 17:36:00,84.5,65.5,29.94,South,181,2.0,11.0,53,0.00,,,0.00,Wunderground v.1.15,2013-10-13 21:36:00,
2013-10-13 17:37:00,84.5,65.5,29.94,SSW,208,2.0,11.0,53,0.00,,,0.00,Wunderground v.1.15,2013-10-13 21:37:00,
2013-10-13 17:38:00,84.5,65.5,29.94,West,270,2.0,11.0,53,0.00,,,0.00,Wunderground v.1.15,2013-10-13 21:38:00,
2013-10-13 17:40:00,84.5,65.5,29.94,WNW,290,2.0,11.0,53,0.00,,,0.00,Wunderground v.1.15,2013-10-13 21:40:00,
2013-10-13 17:42:00,84.5,65.5,29.94,South,182,2.0,11.0,53,0.00,,,0.00,Wunderground v.1.15,2013-10-13 21:42:00,
2013-10-13 17:43:00,84.5,65.5,29.94,West,261,2.0,11.0,53,0.00,,,0.00,Wunderground v.1.15,2013-10-13 21:43:00,
2013-10-13 17:46:00,84.2,65.8,29.94,NNW,329,2.0,11.0,54,0.00,,,0.00,Wunderground v.1.15,2013-10-13 21:46:00,
2013-10-13 17:47:00,84.2,65.2,29.94,West,270,2.0,11.0,53,0.00,,,0.00,Wunderground v.1.15,2013-10-13 21:47:00,
2013-10-13 17:52:00,84.1,65.1,29.94,SSW,211,2.0,11.0,53,0.00,,,0.00,Wunderground v.1.15,2013-10-13 21:52:00,
2013-10-13 17:53:00,84.0,65.0,29.95,South,184,2.0,11.0,53,0.00,,,0.00,Wunderground v.1.15,2013-10-13 21:53:00,
2013-10-13 17:54:00,83.9,64.9,29.95,SW,214,2.0,11.0,53,0.00,,,0.00,Wunderground v.1.15,2013-10-13 21:54:00,
2013-10-13 17:55:00,83.8,65.4,29.95,NW,316,2.0,11.0,54,0.00,,,0.00,Wunderground v.1.15,2013-10-13 21:55:00,
2013-10-13 17:57:00,83.6,64.7,29.95,NNW,338,2.0,11.0,53,0.00,,,0.00,Wunderground v.1.15,2013-10-13 21:57:00,
2013-10-13 17:59:00,83.5,65.1,29.95,West,281,2.0,11.0,54,0.00,,,0.00,Wunderground v.1.15,2013-10-13 21:59:00,
2013-10-13 18:00:00,83.4,65.0,29.95,WNW,295,2.0,2.0,54,0.00,,,0.00,Wunderground v.1.15,2013-10-13 22:00:00,
2013-10-13 18:01:00,83.4,65.0,29.95,WNW,302,2.0,5.0,54,0.00,,,0.00,Wunderground v.1.15,2013-10-13 22:01:00,
2013-10-13 18:03:00,83.3,64.9,29.95,West,281,2.0,5.0,54,0.00,,,0.00,Wunderground v.1.15,2013-10-13 22:03:00,
2013-10-13 18:06:00,83.2,64.3,29.95,SSW,206,2.0,5.0,53,0.00,,,0.00,Wunderground v.1.15,2013-10-13 22:06:00,
2013-10-13 18:08:00,83.1,64.7,29.95,SW,234,2.0,5.0,54,0.00,,,0.00,Wunderground v.1.15,2013-10-13 22:08:00,
2013-10-13 18:09:00,83.0,64.6,29.95,SSW,192,2.0,5.0,54,0.00,,,0.00,Wunderground v.1.15,2013-10-13 22:09:00,
2013-10-13 18:13:00,82.7,64.4,29.95,WNW,300,2.0,6.0,54,0.00,,,0.00,Wunderground v.1.15,2013-10-13 22:13:00,
2013-10-13 18:15:00,82.5,64.2,29.95,WNW,292,2.0,6.0,54,0.00,,,0.00,Wunderground v.1.15,2013-10-13 22:15:00,
2013-10-13 18:16:00,82.5,64.2,29.95,WNW,302,2.0,6.0,54,0.00,,,0.00,Wunderground v.1.15,2013-10-13 22:16:00,
2013-10-13 18:19:00,82.4,64.1,29.95,SW,228,2.0,6.0,54,0.00,,,0.00,Wunderground v.1.15,2013-10-13 22:19:00,
2013-10-13 18:20:00,82.3,64.0,29.95,SSE,163,2.0,2.0,54,0.00,,,0.00,Wunderground v.1.15,2013-10-13 22:20:00,
2013-10-13 18:22:00,82.2,63.9,29.95,SW,219,2.0,3.0,54,0.00,,,0.00,Wunderground v.1.15,2013-10-13 22:22:00,
2013-10-13 18:24:00,82.0,63.7,29.95,NW,304,2.0,3.0,54,0.00,,,0.00,Wunderground v.1.15,2013-10-13 22:24:00,
2013-10-13 18:26:00,81.9,64.1,29.95,South,186,2.0,3.0,55,0.00,,,0.00,Wunderground v.1.15,2013-10-13 22:26:00,
2013-10-13 18:27:00,81.8,63.5,29.95,WNW,293,2.0,3.0,54,0.00,,,0.00,Wunderground v.1.15,2013-10-13 22:27:00,
2013-10-13 18:28:00,81.7,64.0,29.95,SSW,192,2.0,3.0,55,0.00,,,0.00,Wunderground v.1.15,2013-10-13 22:28:00,
2013-10-13 18:29:00,81.7,64.0,29.95,South,180,2.0,3.0,55,0.00,,,0.00,Wunderground v.1.15,2013-10-13 22:29:00,
2013-10-13 18:30:00,81.6,63.9,29.95,WSW,250,2.0,7.0,55,0.00,,,0.00,Wunderground v.1.15,2013-10-13 22:30:00,
2013-10-13 18:35:00,81.2,63.5,29.96,SSW,212,2.0,9.0,55,0.00,,,0.00,Wunderground v.1.15,2013-10-13 22:35:00,
2013-10-13 18:36:00,81.2,63.5,29.96,South,184,2.0,9.0,55,0.00,,,0.00,Wunderground v.1.15,2013-10-13 22:36:00,
2013-10-13 18:37:00,81.0,63.3,29.96,WSW,240,2.0,9.0,55,0.00,,,0.00,Wunderground v.1.15,2013-10-13 22:37:00,
2013-10-13 18:41:00,80.8,63.6,29.96,NW,306,2.0,9.0,56,0.00,,,0.00,Wunderground v.1.15,2013-10-13 22:41:00,
2013-10-13 18:43:00,80.7,63.5,29.96,SW,236,2.0,9.0,56,0.00,,,0.00,Wunderground v.1.15,2013-10-13 22:43:00,
2013-10-13 18:45:00,80.6,63.5,29.96,West,259,1.0,9.0,56,0.00,,,0.00,Wunderground v.1.15,2013-10-13 22:45:00,
2013-10-13 18:46:00,80.5,63.4,29.96,SW,229,1.0,9.0,56,0.00,,,0.00,Wunderground v.1.15,2013-10-13 22:46:00,
2013-10-13 18:48:00,80.5,63.4,29.96,WNW,282,1.0,9.0,56,0.00,,,0.00,Wunderground v.1.15,2013-10-13 22:48:00,
2013-10-13 18:49:00,80.4,63.3,29.96,NNW,329,1.0,9.0,56,0.00,,,0.00,Wunderground v.1.15,2013-10-13 22:49:00,
2013-10-13 18:52:00,80.3,63.2,29.96,West,278,1.0,9.0,56,0.00,,,0.00,Wunderground v.1.15,2013-10-13 22:52:00,
2013-10-13 18:53:00,80.3,63.2,29.96,SSW,198,1.0,9.0,56,0.00,,,0.00,Wunderground v.1.15,2013-10-13 22:53:00,
2013-10-13 18:56:00,80.1,63.5,29.96,South,172,1.0,9.0,57,0.00,,,0.00,Wunderground v.1.15,2013-10-13 22:56:00,
2013-10-13 18:57:00,80.1,63.5,29.96,SSW,194,1.0,9.0,57,0.00,,,0.00,Wunderground v.1.15,2013-10-13 22:57:00,
2013-10-13 18:58:00,80.0,63.4,29.96,SSW,200,1.0,9.0,57,0.00,,,0.00,Wunderground v.1.15,2013-10-13 22:58:00,
2013-10-13 18:59:00,79.9,63.3,29.96,SSW,213,1.0,9.0,57,0.00,,,0.00,Wunderground v.1.15,2013-10-13 22:59:00,
2013-10-13 19:00:00,79.9,63.3,29.96,West,278,1.0,1.0,57,0.00,,,0.00,Wunderground v.1.15,2013-10-13 23:00:00,
2013-10-13 19:03:00,79.8,63.2,29.96,South,179,1.0,6.0,57,0.00,,,0.00,Wunderground v.1.15,2013-10-13 23:03:00,
2013-10-13 19:04:00,79.7,63.6,29.96,West,270,1.0,6.0,58,0.00,,,0.00,Wunderground v.1.15,2013-10-13 23:04:00,
2013-10-13 19:06:00,79.7,63.6,29.96,SSW,194,1.0,6.0,58,0.00,,,0.00,Wunderground v.1.15,2013-10-13 23:06:00,
2013-10-13 19:10:00,79.6,63.5,29.96,WSW,252,1.0,1.0,58,0.00,,,0.00,Wunderground v.1.15,2013-10-13 23:10:00,
2013-10-13 19:11:00,79.6,63.5,29.96,South,173,1.0,2.0,58,0.00,,,0.00,Wunderground v.1.15,2013-10-13 23:11:00,
2013-10-13 19:15:00,79.4,63.3,29.96,SSW,211,1.0,2.0,58,0.00,,,0.00,Wunderground v.1.15,2013-10-13 23:15:00,
2013-10-13 19:17:00,79.3,63.7,29.96,SW,234,1.0,2.0,59,0.00,,,0.00,Wunderground v.1.15,2013-10-13 23:17:00,
2013-10-13 19:19:00,79.2,63.6,29.96,WSW,250,0.0,2.0,59,0.00,,,0.00,Wunderground v.1.15,2013-10-13 23:19:00,
2013-10-13 19:21:00,79.2,63.6,29.96,SW,223,0.0,0.0,59,0.00,,,0.00,Wunderground v.1.15,2013-10-13 23:21:00,
2013-10-13 19:22:00,79.2,63.6,29.96,South,174,0.0,0.0,59,0.00,,,0.00,Wunderground v.1.15,2013-10-13 23:22:00,
2013-10-13 19:24:00,79.1,64.0,29.96,NW,306,0.0,1.0,60,0.00,,,0.00,Wunderground v.1.15,2013-10-13 23:24:00,
2013-10-13 19:26:00,79.0,63.9,29.96,SSE,156,0.0,1.0,60,0.00,,,0.00,Wunderground v.1.15,2013-10-13 23:26:00,
2013-10-13 19:27:00,79.0,63.9,29.96,WSW,237,0.0,1.0,60,0.00,,,0.00,Wunderground v.1.15,2013-10-13 23:27:00,
2013-10-13 19:30:00,78.9,63.8,29.96,West,281,0.0,1.0,60,0.00,,,0.00,Wunderground v.1.15,2013-10-13 23:30:00,
2013-10-13 19:31:00,78.9,63.8,29.96,South,181,0.0,8.0,60,0.00,,,0.00,Wunderground v.1.15,2013-10-13 23:31:00,
2013-10-13 19:32:00,78.9,63.8,29.96,SSW,212,0.0,8.0,60,0.00,,,0.00,Wunderground v.1.15,2013-10-13 23:32:00,
2013-10-13 19:33:00,78.8,63.7,29.96,West,263,0.0,8.0,60,0.00,,,0.00,Wunderground v.1.15,2013-10-13 23:33:00,
2013-10-13 19:34:00,78.8,63.7,29.96,South,181,1.0,8.0,60,0.00,,,0.00,Wunderground v.1.15,2013-10-13 23:34:00,
2013-10-13 19:36:00,78.8,64.2,29.96,South,185,0.0,8.0,61,0.00,,,0.00,Wunderground v.1.15,2013-10-13 23:36:00,
2013-10-13 19:39:00,78.7,64.1,29.96,SSW,206,0.0,8.0,61,0.00,,,0.00,Wunderground v.1.15,2013-10-13 23:39:00,
2013-10-13 19:40:00,78.6,64.0,29.96,SSW,210,0.0,8.0,61,0.00,,,0.00,Wunderground v.1.15,2013-10-13 23:40:00,
2013-10-13 19:42:00,78.6,64.0,29.96,West,273,0.0,8.0,61,0.00,,,0.00,Wunderground v.1.15,2013-10-13 23:42:00,
2013-10-13 19:46:00,78.4,64.3,29.96,South,191,0.0,8.0,62,0.00,,,0.00,Wunderground v.1.15,2013-10-13 23:46:00,
2013-10-13 19:47:00,78.4,64.3,29.96,SSW,195,0.0,8.0,62,0.00,,,0.00,Wunderground v.1.15,2013-10-13 23:47:00,
2013-10-13 19:48:00,78.4,64.8,29.96,SSW,210,0.0,8.0,63,0.00,,,0.00,Wunderground v.1.15,2013-10-13 23:48:00,
2013-10-13 19:50:00,78.3,64.2,29.96,NW,310,0.0,8.0,62,0.00,,,0.00,Wunderground v.1.15,2013-10-13 23:50:00,
2013-10-13 19:52:00,78.2,64.1,29.96,South,184,0.0,8.0,62,0.00,,,0.00,Wunderground v.1.15,2013-10-13 23:52:00,
2013-10-13 19:54:00,78.1,64.5,29.96,SSW,198,0.0,8.0,63,0.00,,,0.00,Wunderground v.1.15,2013-10-13 23:54:00,
2013-10-13 19:56:00,78.1,64.5,29.96,SSW,193,0.0,8.0,63,0.00,,,0.00,Wunderground v.1.15,2013-10-13 23:56:00,
2013-10-13 19:57:00,78.0,64.4,29.96,SSW,193,0.0,8.0,63,0.00,,,0.00,Wunderground v.1.15,2013-10-13 23:57:00,
2013-10-13 20:02:00,77.8,64.2,29.96,SSW,199,0.0,0.0,63,0.00,,,0.00,Wunderground v.1.15,2013-10-14 00:02:00,
2013-10-13 20:03:00,77.7,64.5,29.96,SSW,199,0.0,0.0,64,0.00,,,0.00,Wunderground v.1.15,2013-10-14 00:03:00,
2013-10-13 20:05:00,77.6,64.5,29.96,SSW,199,0.0,0.0,64,0.00,,,0.00,Wunderground v.1.15,2013-10-14 00:05:00,
2013-10-13 20:07:00,77.5,64.4,29.96,SSW,210,0.0,0.0,64,0.00,,,0.00,Wunderground v.1.15,2013-10-14 00:07:00,
2013-10-13 20:09:00,77.5,64.8,29.96,South,188,0.0,0.0,65,0.00,,,0.00,Wunderground v.1.15,2013-10-14 00:09:00,
2013-10-13 20:11:00,77.5,64.4,29.96,South,186,0.0,0.0,64,0.00,,,0.00,Wunderground v.1.15,2013-10-14 00:11:00,
2013-10-13 20:12:00,77.4,64.7,29.96,South,186,0.0,1.0,65,0.00,,,0.00,Wunderground v.1.15,2013-10-14 00:12:00,
2013-10-13 20:13:00,77.4,64.7,29.96,WSW,257,0.0,1.0,65,0.00,,,0.00,Wunderground v.1.15,2013-10-14 00:13:00,
2013-10-13 20:17:00,77.3,64.6,29.97,SSW,193,0.0,1.0,65,0.00,,,0.00,Wunderground v.1.15,2013-10-14 00:17:00,
2013-10-13 20:18:00,77.3,64.6,29.97,SSW,193,0.0,1.0,65,0.00,,,0.00,Wunderground v.1.15,2013-10-14 00:18:00,
2013-10-13 20:19:00,77.3,64.6,29.97,South,189,0.0,2.0,65,0.00,,,0.00,Wunderground v.1.15,2013-10-14 00:19:00,
2013-10-13 20:20:00,77.3,64.6,29.97,South,188,0.0,1.0,65,0.00,,,0.00,Wunderground v.1.15,2013-10-14 00:20:00,
2013-10-13 20:21:00,77.3,64.6,29.97,South,187,0.0,1.0,65,0.00,,,0.00,Wunderground v.1.15,2013-10-14 00:21:00,
2013-10-13 20:23:00,77.3,65.1,29.97,SSW,201,0.0,1.0,66,0.00,,,0.00,Wunderground v.1.15,2013-10-14 00:23:00,
2013-10-13 20:27:00,77.2,65.0,29.97,South,189,0.0,2.0,66,0.00,,,0.00,Wunderground v.1.15,2013-10-14 00:27:00,
2013-10-13 20:29:00,77.2,65.0,29.97,SW,221,0.0,2.0,66,0.00,,,0.00,Wunderground v.1.15,2013-10-14 00:29:00,
2013-10-13 20:30:00,77.2,65.0,29.97,SW,218,0.0,0.0,66,0.00,,,0.00,Wunderground v.1.15,2013-10-14 00:30:00,
2013-10-13 20:31:00,77.2,65.0,29.97,SW,218,0.0,3.0,66,0.00,,,0.00,Wunderground v.1.15,2013-10-14 00:31:00,
2013-10-13 20:35:00,77.1,64.9,29.97,WSW,248,0.0,3.0,66,0.00,,,0.00,Wunderground v.1.15,2013-10-14 00:35:00,
2013-10-13 20:36:00,77.0,64.8,29.97,South,181,0.0,3.0,66,0.00,,,0.00,Wunderground v.1.15,2013-10-14 00:36:00,
2013-10-13 20:37:00,77.0,65.2,29.97,SSW,206,0.0,3.0,67,0.00,,,0.00,Wunderground v.1.15,2013-10-14 00:37:00,
2013-10-13 20:40:00,76.9,65.1,29.97,SSW,193,0.0,3.0,67,0.00,,,0.00,Wunderground v.1.15,2013-10-14 00:40:00,
2013-10-13 20:43:00,76.9,65.1,29.98,South,179,0.0,3.0,67,0.00,,,0.00,Wunderground v.1.15,2013-10-14 00:43:00,
2013-10-13 20:44:00,76.9,65.1,29.98,South,179,0.0,3.0,67,0.00,,,0.00,Wunderground v.1.15,2013-10-14 00:44:00,
2013-10-13 20:48:00,76.7,65.3,29.98,South,179,0.0,3.0,68,0.00,,,0.00,Wunderground v.1.15,2013-10-14 00:48:00,
2013-10-13 20:49:00,76.7,65.3,29.98,South,179,0.0,3.0,68,0.00,,,0.00,Wunderground v.1.15,2013-10-14 00:49:00,
2013-10-13 20:50:00,76.7,65.3,29.98,South,179,0.0,3.0,68,0.00,,,0.00,Wunderground v.1.15,2013-10-14 00:50:00,
2013-10-13 20:54:00,76.5,65.1,29.98,South,179,0.0,3.0,68,0.00,,,0.00,Wunderground v.1.15,2013-10-14 00:54:00,
2013-10-13 20:55:00,76.5,65.1,29.98,South,179,0.0,3.0,68,0.00,,,0.00,Wunderground v.1.15,2013-10-14 00:55:00,
2013-10-13 20:56:00,76.4,65.1,29.98,South,179,0.0,3.0,68,0.00,,,0.00,Wunderground v.1.15,2013-10-14 00:56:00,
2013-10-13 20:57:00,76.4,65.1,29.98,South,179,0.0,3.0,68,0.00,,,0.00,Wunderground v.1.15,2013-10-14 00:57:00,
2013-10-13 21:00:00,76.2,65.3,29.98,South,179,0.0,0.0,69,0.00,,,0.00,Wunderground v.1.15,2013-10-14 01:00:00,
2013-10-13 21:04:00,76.0,65.1,29.98,South,179,0.0,0.0,69,0.00,,,0.00,Wunderground v.1.15,2013-10-14 01:04:00,
2013-10-13 21:05:00,76.0,65.1,29.98,South,179,0.0,0.0,69,0.00,,,0.00,Wunderground v.1.15,2013-10-14 01:05:00,
2013-10-13 21:06:00,75.9,65.0,29.98,South,179,0.0,0.0,69,0.00,,,0.00,Wunderground v.1.15,2013-10-14 01:06:00,
2013-10-13 21:08:00,75.8,64.9,29.98,South,179,0.0,0.0,69,0.00,,,0.00,Wunderground v.1.15,2013-10-14 01:08:00,
2013-10-13 21:10:00,75.7,65.2,29.98,South,179,0.0,0.0,70,0.00,,,0.00,Wunderground v.1.15,2013-10-14 01:10:00,
2013-10-13 21:11:00,75.7,65.2,29.98,South,179,0.0,0.0,70,0.00,,,0.00,Wunderground v.1.15,2013-10-14 01:11:00,
2013-10-13 21:12:00,75.6,65.1,29.98,South,179,0.0,0.0,70,0.00,,,0.00,Wunderground v.1.15,2013-10-14 01:12:00,
2013-10-13 21:13:00,75.6,65.9,29.98,South,179,0.0,0.0,72,0.00,,,0.00,Wunderground v.1.15,2013-10-14 01:13:00,
2013-10-13 21:16:00,75.7,66.0,29.98,South,179,0.0,0.0,72,0.00,,,0.00,Wunderground v.1.15,2013-10-14 01:16:00,
2013-10-13 21:19:00,75.6,65.9,29.98,South,179,0.0,0.0,72,0.00,,,0.00,Wunderground v.1.15,2013-10-14 01:19:00,
2013-10-13 21:20:00,75.6,65.9,29.98,South,179,0.0,0.0,72,0.00,,,0.00,Wunderground v.1.15,2013-10-14 01:20:00,
2013-10-13 21:22:00,75.5,65.4,29.98,South,179,0.0,0.0,71,0.00,,,0.00,Wunderground v.1.15,2013-10-14 01:22:00,
2013-10-13 21:23:00,75.5,65.4,29.98,South,179,0.0,0.0,71,0.00,,,0.00,Wunderground v.1.15,2013-10-14 01:23:00,
2013-10-13 21:25:00,75.4,65.3,29.98,South,179,0.0,0.0,71,0.00,,,0.00,Wunderground v.1.15,2013-10-14 01:25:00,
2013-10-13 21:28:00,75.3,65.2,29.98,South,179,0.0,0.0,71,0.00,,,0.00,Wunderground v.1.15,2013-10-14 01:28:00,
2013-10-13 21:29:00,75.2,65.1,29.98,South,179,0.0,0.0,71,0.00,,,0.00,Wunderground v.1.15,2013-10-14 01:29:00,
2013-10-13 21:30:00,75.2,65.6,29.98,South,179,0.0,0.0,72,0.00,,,0.00,Wunderground v.1.15,2013-10-14 01:30:00,
2013-10-13 21:31:00,75.2,65.6,29.98,South,179,0.0,2.0,72,0.00,,,0.00,Wunderground v.1.15,2013-10-14 01:31:00,
2013-10-13 21:35:00,75.2,65.6,29.99,South,179,0.0,2.0,72,0.00,,,0.00,Wunderground v.1.15,2013-10-14 01:35:00,
2013-10-13 21:36:00,75.3,65.6,29.99,South,179,0.0,2.0,72,0.00,,,0.00,Wunderground v.1.15,2013-10-14 01:36:00,
2013-10-13 21:38:00,75.3,65.6,29.99,South,179,0.0,2.0,72,0.00,,,0.00,Wunderground v.1.15,2013-10-14 01:38:00,
2013-10-13 21:41:00,75.3,65.6,29.99,South,179,0.0,2.0,72,0.00,,,0.00,Wunderground v.1.15,2013-10-14 01:41:00,
2013-10-13 21:42:00,75.3,65.6,29.99,South,179,0.0,2.0,72,0.00,,,0.00,Wunderground v.1.15,2013-10-14 01:42:00,
2013-10-13 21:44:00,75.2,65.6,29.99,South,179,0.0,2.0,72,0.00,,,0.00,Wunderground v.1.15,2013-10-14 01:44:00,
2013-10-13 21:45:00,75.1,65.5,29.99,South,179,0.0,2.0,72,0.00,,,0.00,Wunderground v.1.15,2013-10-14 01:45:00,
2013-10-13 21:46:00,75.1,65.9,29.99,South,179,0.0,2.0,73,0.00,,,0.00,Wunderground v.1.15,2013-10-14 01:46:00,
2013-10-13 21:47:00,75.0,65.4,29.99,South,179,0.0,2.0,72,0.00,,,0.00,Wunderground v.1.15,2013-10-14 01:47:00,
2013-10-13 21:49:00,74.9,65.7,29.99,South,179,0.0,2.0,73,0.00,,,0.00,Wunderground v.1.15,2013-10-14 01:49:00,
2013-10-13 21:51:00,74.8,65.6,29.99,South,179,0.0,2.0,73,0.00,,,0.00,Wunderground v.1.15,2013-10-14 01:51:00,
2013-10-13 21:52:00,74.8,65.6,29.99,South,179,0.0,2.0,73,0.00,,,0.00,Wunderground v.1.15,2013-10-14 01:52:00,
2013-10-13 21:53:00,74.8,65.6,29.99,South,179,0.0,2.0,73,0.00,,,0.00,Wunderground v.1.15,2013-10-14 01:53:00,
2013-10-13 21:57:00,74.6,65.8,29.99,South,179,0.0,2.0,74,0.00,,,0.00,Wunderground v.1.15,2013-10-14 01:57:00,
2013-10-13 21:58:00,74.6,65.8,29.99,South,179,0.0,2.0,74,0.00,,,0.00,Wunderground v.1.15,2013-10-14 01:58:00,
2013-10-13 22:00:00,74.7,66.2,29.99,South,179,0.0,0.0,75,0.00,,,0.00,Wunderground v.1.15,2013-10-14 02:00:00,
2013-10-13 22:05:00,74.6,65.8,29.99,South,179,0.0,0.0,74,0.00,,,0.00,Wunderground v.1.15,2013-10-14 02:05:00,
2013-10-13 22:06:00,74.7,65.9,29.99,South,179,0.0,0.0,74,0.00,,,0.00,Wunderground v.1.15,2013-10-14 02:06:00,
2013-10-13 22:07:00,74.7,65.9,29.99,South,179,0.0,0.0,74,0.00,,,0.00,Wunderground v.1.15,2013-10-14 02:07:00,
2013-10-13 22:08:00,74.7,65.9,29.99,South,179,0.0,0.0,74,0.00,,,0.00,Wunderground v.1.15,2013-10-14 02:08:00,
2013-10-13 22:10:00,74.8,66.0,29.99,South,179,0.0,1.0,74,0.00,,,0.00,Wunderground v.1.15,2013-10-14 02:10:00,
2013-10-13 22:11:00,74.8,66.0,29.99,South,179,0.0,1.0,74,0.00,,,0.00,Wunderground v.1.15,2013-10-14 02:11:00,
2013-10-13 22:13:00,74.8,66.7,29.99,South,179,0.0,1.0,76,0.00,,,0.00,Wunderground v.1.15,2013-10-14 02:13:00,
2013-10-13 22:15:00,74.8,66.0,29.99,South,179,0.0,1.0,74,0.00,,,0.00,Wunderground v.1.15,2013-10-14 02:15:00,
2013-10-13 22:17:00,74.8,66.3,29.99,South,179,0.0,1.0,75,0.00,,,0.00,Wunderground v.1.15,2013-10-14 02:17:00,
2013-10-13 22:18:00,74.8,66.3,29.99,South,179,0.0,1.0,75,0.00,,,0.00,Wunderground v.1.15,2013-10-14 02:18:00,
2013-10-13 22:22:00,74.8,66.0,29.99,SSW,211,1.0,1.0,74,0.00,,,0.00,Wunderground v.1.15,2013-10-14 02:22:00,
2013-10-13 22:23:00,74.9,66.1,29.99,South,180,1.0,1.0,74,0.00,,,0.00,Wunderground v.1.15,2013-10-14 02:23:00,
2013-10-13 22:24:00,74.9,66.1,29.99,South,180,1.0,1.0,74,0.00,,,0.00,Wunderground v.1.15,2013-10-14 02:24:00,
2013-10-13 22:28:00,74.9,66.1,29.99,South,180,1.0,1.0,74,0.00,,,0.00,Wunderground v.1.15,2013-10-14 02:28:00,
2013-10-13 22:29:00,74.9,66.1,29.99,South,180,0.0,1.0,74,0.00,,,0.00,Wunderground v.1.15,2013-10-14 02:29:00,
2013-10-13 22:30:00,74.8,66.0,29.99,South,180,0.0,0.0,74,0.00,,,0.00,Wunderground v.1.15,2013-10-14 02:30:00,
2013-10-13 22:34:00,74.6,65.8,29.99,South,180,0.0,0.0,74,0.00,,,0.00,Wunderground v.1.15,2013-10-14 02:34:00,
2013-10-13 22:35:00,74.5,65.7,29.99,South,180,0.0,0.0,74,0.00,,,0.00,Wunderground v.1.15,2013-10-14 02:35:00,
2013-10-13 22:36:00,74.5,65.7,30.00,South,181,0.0,0.0,74,0.00,,,0.00,Wunderground v.1.15,2013-10-14 02:36:00,
2013-10-13 22:37:00,74.4,66.0,30.00,South,181,0.0,0.0,75,0.00,,,0.00,Wunderground v.1.15,2013-10-14 02:37:00,
2013-10-13 22:42:00,74.5,66.1,30.00,South,181,0.0,1.0,75,0.00,,,0.00,Wunderground v.1.15,2013-10-14 02:42:00,
2013-10-13 22:43:00,74.5,65.7,30.00,South,181,0.0,1.0,74,0.00,,,0.00,Wunderground v.1.15,2013-10-14 02:43:00,
2013-10-13 22:44:00,74.5,65.7,30.00,South,181,0.0,1.0,74,0.00,,,0.00,Wunderground v.1.15,2013-10-14 02:44:00,
2013-10-13 22:46:00,74.5,65.7,30.00,South,181,0.0,1.0,74,0.00,,,0.00,Wunderground v.1.15,2013-10-14 02:46:00,
2013-10-13 22:50:00,74.3,65.5,29.99,South,181,0.0,0.0,74,0.00,,,0.00,Wunderground v.1.15,2013-10-14 02:50:00,
2013-10-13 22:52:00,74.2,65.4,29.99,South,181,0.0,0.0,74,0.00,,,0.00,Wunderground v.1.15,2013-10-14 02:52:00,
2013-10-13 22:54:00,74.1,65.3,30.00,South,181,0.0,0.0,74,0.00,,,0.00,Wunderground v.1.15,2013-10-14 02:54:00,
2013-10-13 22:55:00,74.0,65.6,29.99,South,181,0.0,0.0,75,0.00,,,0.00,Wunderground v.1.15,2013-10-14 02:55:00,
2013-10-13 22:56:00,74.0,65.6,30.00,South,181,0.0,0.0,75,0.00,,,0.00,Wunderground v.1.15,2013-10-14 02:56:00,
2013-10-13 22:59:00,73.8,65.4,30.00,South,181,0.0,0.0,75,0.00,,,0.00,Wunderground v.1.15,2013-10-14 02:59:00,
2013-10-13 23:01:00,73.7,65.3,30.00,South,181,0.0,0.0,75,0.00,,,0.00,Wunderground v.1.15,2013-10-14 03:01:00,
2013-10-13 23:02:00,73.7,65.7,30.00,South,181,0.0,0.0,76,0.00,,,0.00,Wunderground v.1.15,2013-10-14 03:02:00,
2013-10-13 23:03:00,73.7,66.0,30.00,South,181,0.0,0.0,77,0.00,,,0.00,Wunderground v.1.15,2013-10-14 03:03:00,
2013-10-13 23:06:00,73.6,65.6,30.00,South,181,0.0,0.0,76,0.00,,,0.00,Wunderground v.1.15,2013-10-14 03:06:00,
2013-10-13 23:07:00,73.7,66.0,30.00,South,181,0.0,0.0,77,0.00,,,0.00,Wunderground v.1.15,2013-10-14 03:07:00,
2013-10-13 23:08:00,73.7,66.0,30.00,South,181,0.0,0.0,77,0.00,,,0.00,Wunderground v.1.15,2013-10-14 03:08:00,
2013-10-13 23:09:00,73.7,66.0,30.00,South,181,0.0,0.0,77,0.00,,,0.00,Wunderground v.1.15,2013-10-14 03:09:00,
2013-10-13 23:10:00,73.7,66.0,30.00,South,181,0.0,0.0,77,0.00,,,0.00,Wunderground v.1.15,2013-10-14 03:10:00,
2013-10-13 23:12:00,73.7,66.0,30.00,SSE,166,0.0,0.0,77,0.00,,,0.00,Wunderground v.1.15,2013-10-14 03:12:00,
2013-10-13 23:14:00,73.7,66.4,30.00,SSE,166,0.0,0.0,78,0.00,,,0.00,Wunderground v.1.15,2013-10-14 03:14:00,
2013-10-13 23:17:00,73.7,66.0,30.00,SSE,167,0.0,1.0,77,0.00,,,0.00,Wunderground v.1.15,2013-10-14 03:17:00,
2013-10-13 23:18:00,73.7,66.0,30.00,SSE,167,0.0,1.0,77,0.00,,,0.00,Wunderground v.1.15,2013-10-14 03:18:00,
2013-10-13 23:19:00,73.8,66.1,30.00,SSE,167,0.0,1.0,77,0.00,,,0.00,Wunderground v.1.15,2013-10-14 03:19:00,
2013-10-13 23:20:00,73.8,66.1,30.00,SSE,165,0.0,0.0,77,0.00,,,0.00,Wunderground v.1.15,2013-10-14 03:20:00,
2013-10-13 23:22:00,73.9,66.2,30.00,SSE,165,0.0,0.0,77,0.00,,,0.00,Wunderground v.1.15,2013-10-14 03:22:00,
2013-10-13 23:23:00,73.9,66.2,30.00,SSE,165,0.0,0.0,77,0.00,,,0.00,Wunderground v.1.15,2013-10-14 03:23:00,
2013-10-13 23:24:00,73.9,66.2,30.00,SSE,166,0.0,0.0,77,0.00,,,0.00,Wunderground v.1.15,2013-10-14 03:24:00,
2013-10-13 23:26:00,73.9,66.2,30.00,SSE,165,0.0,0.0,77,0.00,,,0.00,Wunderground v.1.15,2013-10-14 03:26:00,
2013-10-13 23:29:00,73.7,66.4,30.00,SSE,166,0.0,0.0,78,0.00,,,0.00,Wunderground v.1.15,2013-10-14 03:29:00,
2013-10-13 23:31:00,73.7,66.4,30.00,SSE,166,0.0,2.0,78,0.00,,,0.00,Wunderground v.1.15,2013-10-14 03:31:00,
2013-10-13 23:32:00,73.6,66.3,30.00,SSE,167,0.0,2.0,78,0.00,,,0.00,Wunderground v.1.15,2013-10-14 03:32:00,
2013-10-13 23:34:00,73.5,66.2,30.00,South,188,0.0,2.0,78,0.00,,,0.00,Wunderground v.1.15,2013-10-14 03:34:00,
2013-10-13 23:35:00,73.5,66.2,30.00,South,179,0.0,2.0,78,0.00,,,0.00,Wunderground v.1.15,2013-10-14 03:35:00,
2013-10-13 23:36:00,73.6,66.3,30.00,South,178,0.0,2.0,78,0.00,,,0.00,Wunderground v.1.15,2013-10-14 03:36:00,
2013-10-13 23:37:00,73.6,66.7,30.00,South,179,0.0,2.0,79,0.00,,,0.00,Wunderground v.1.15,2013-10-14 03:37:00,
2013-10-13 23:41:00,73.6,66.3,30.00,South,180,0.0,2.0,78,0.00,,,0.00,Wunderground v.1.15,2013-10-14 03:41:00,
2013-10-13 23:42:00,73.6,66.3,30.00,South,184,0.0,2.0,78,0.00,,,0.00,Wunderground v.1.15,2013-10-14 03:42:00,
2013-10-13 23:45:00,73.6,66.3,30.00,South,185,0.0,2.0,78,0.00,,,0.00,Wunderground v.1.15,2013-10-14 03:45:00,
2013-10-13 23:46:00,73.5,66.2,30.00,South,185,0.0,2.0,78,0.00,,,0.00,Wunderground v.1.15,2013-10-14 03:46:00,
2013-10-13 23:47:00,73.6,66.3,30.00,South,185,0.0,2.0,78,0.00,,,0.00,Wunderground v.1.15,2013-10-14 03:47:00,
2013-10-13 23:48:00,73.6,66.7,30.00,South,185,0.0,2.0,79,0.00,,,0.00,Wunderground v.1.15,2013-10-14 03:48:00,
2013-10-13 23:49:00,73.6,66.7,30.00,South,176,0.0,2.0,79,0.00,,,0.00,Wunderground v.1.15,2013-10-14 03:49:00,
2013-10-13 23:54:00,73.6,66.7,30.00,South,179,1.0,2.0,79,0.00,,,0.00,Wunderground v.1.15,2013-10-14 03:54:00,
2013-10-13 23:55:00,73.6,66.7,30.00,South,180,1.0,2.0,79,0.00,,,0.00,Wunderground v.1.15,2013-10-14 03:55:00,
2013-10-13 23:57:00,73.6,66.7,30.00,South,174,1.0,2.0,79,0.00,,,0.00,Wunderground v.1.15,2013-10-14 03:57:00,
2013-10-13 23:58:00,73.6,66.7,30.00,South,176,1.0,2.0,79,0.00,,,0.00,Wunderground v.1.15,2013-10-14 03:58:00,